Observation data for Sterling City on 12/09/2018      Previous  Date       Current Mesonet Observations  Soil Data  Daily Summary Page  Observations in Plain Language
KSC1 090600Z 27003KT 02/01 A3032 RMK A01 T00190012  RH  095%=      5-min Rain = 0
KSC1 090601Z 28003KT 02/01 A3032 RMK A01 T00180012  RH  096%=      5-min Rain = 0
KSC1 090602Z 29003KT 02/01 A3032 RMK A01 T00180012  RH  096%=      5-min Rain = 0
KSC1 090603Z 27002KT 02/01 A3032 RMK A01 T00180012  RH  096%=      5-min Rain = 0
KSC1 090604Z 27002KT 02/01 A3032 RMK A01 T00180012  RH  096%=      5-min Rain = 0
KSC1 090605Z 26002KT 02/01 A3032 RMK A01 T00180012  RH  096%=      5-min Rain = 0
KSC1 090606Z 26002KT 02/01 A3032 RMK A01 T00180012  RH  096%=      5-min Rain = 0
KSC1 090607Z 25002KT 02/01 A3032 RMK A01 T00180012  RH  096%=      5-min Rain = 0
KSC1 090608Z 25002KT 02/01 A3032 RMK A01 T00180012  RH  096%=      5-min Rain = 0
KSC1 090609Z 26002KT 02/01 A3032 RMK A01 T00180012  RH  096%=      5-min Rain = 0
KSC1 090610Z 26002KT 02/01 A3032 RMK A01 T00180013  RH  097%=      5-min Rain = 0
KSC1 090611Z 28003KT 02/01 A3032 RMK A01 T00170012  RH  096%=      5-min Rain = 0
KSC1 090612Z 28002KT 02/01 A3032 RMK A01 T00160011  RH  096%=      5-min Rain = 0
KSC1 090613Z 29002KT 02/01 A3032 RMK A01 T00150010  RH  096%=      5-min Rain = 0
KSC1 090614Z 28002KT 02/01 A3032 RMK A01 T00150009  RH  096%=      5-min Rain = 0
KSC1 090615Z 29002KT 02/01 A3032 RMK A01 T00150009  RH  096%=      5-min Rain = 0
KSC1 090616Z 29003KT 01/01 A3032 RMK A01 T00130007  RH  096%=      5-min Rain = 0
KSC1 090617Z 29002KT 01/01 A3032 RMK A01 T00130007  RH  096%=      5-min Rain = 0
KSC1 090618Z 28003KT 01/01 A3032 RMK A01 T00130007  RH  096%=      5-min Rain = 0
KSC1 090619Z 26003KT 01/01 A3032 RMK A01 T00120007  RH  097%=      5-min Rain = 0
KSC1 090620Z 26003KT 01/01 A3032 RMK A01 T00120007  RH  096%=      5-min Rain = 0
KSC1 090621Z 26003KT 01/01 A3032 RMK A01 T00120007  RH  096%=      5-min Rain = 0
KSC1 090622Z 27003KT 01/01 A3032 RMK A01 T00120007  RH  097%=      5-min Rain = 0
KSC1 090623Z 27003KT 01/01 A3032 RMK A01 T00120007  RH  097%=      5-min Rain = 0
KSC1 090624Z 26003KT 01/01 A3032 RMK A01 T00120007  RH  097%=      5-min Rain = 0
KSC1 090625Z 26003KT 01/01 A3032 RMK A01 T00120008  RH  097%=      5-min Rain = 0
KSC1 090626Z 26003KT 01/01 A3032 RMK A01 T00120008  RH  097%=      5-min Rain = 0
KSC1 090627Z 26003KT 01/01 A3032 RMK A01 T00120008  RH  097%=      5-min Rain = 0
KSC1 090628Z 26002KT 01/01 A3032 RMK A01 T00120008  RH  097%=      5-min Rain = 0
KSC1 090629Z 26002KT 01/01 A3032 RMK A01 T00120008  RH  097%=      5-min Rain = 0
KSC1 090630Z 26002KT 01/01 A3032 RMK A01 T00110007  RH  097%=      5-min Rain = 0
KSC1 090631Z 26002KT 01/01 A3032 RMK A01 T00090005  RH  097%=      5-min Rain = 0
KSC1 090632Z 26002KT 01/00 A3032 RMK A01 T00080004  RH  097%=      5-min Rain = 0
KSC1 090633Z 25002KT 01/00 A3032 RMK A01 T00070002  RH  097%=      5-min Rain = 0
KSC1 090634Z 25002KT 01/00 A3031 RMK A01 T00060001  RH  097%=      5-min Rain = 0
KSC1 090635Z 25002KT 01/00 A3031 RMK A01 T00050001  RH  097%=      5-min Rain = 0
KSC1 090636Z 24002KT 00/00 A3031 RMK A01 T000400-0  RH  097%=      5-min Rain = 0
KSC1 090637Z 25002KT 00/M00 A3031 RMK A01 T00041001  RH  097%=      5-min Rain = 0
KSC1 090638Z 25002KT 00/M00 A3031 RMK A01 T00031002  RH  097%=      5-min Rain = 0
KSC1 090639Z 26002KT 00/M00 A3031 RMK A01 T00021003  RH  097%=      5-min Rain = 0
KSC1 090640Z 26002KT 00/M00 A3031 RMK A01 T00011003  RH  097%=      5-min Rain = 0
KSC1 090641Z 26002KT 00/M00 A3031 RMK A01 T00011003  RH  097%=      5-min Rain = 0
KSC1 090642Z 26002KT 00/M00 A3031 RMK A01 T00011003  RH  098%=      5-min Rain = 0
KSC1 090643Z 26002KT 00/M00 A3031 RMK A01 T00011001  RH  098%=      5-min Rain = 0
KSC1 090644Z 26002KT 00/M00 A3031 RMK A01 T00021001  RH  098%=      5-min Rain = 0
KSC1 090645Z 26002KT 00/00 A3031 RMK A01 T000200-0  RH  099%=      5-min Rain = 0
KSC1 090646Z 26002KT 00/M00 A3031 RMK A01 T00011001  RH  099%=      5-min Rain = 0
KSC1 090647Z 26001KT 00/00 A3031 RMK A01 T00-000-3  RH  098%=      5-min Rain = 0
KSC1 090648Z 26002KT M00/M00 A3031 RMK A01 T10021004  RH  098%=      5-min Rain = 0
KSC1 090649Z 26002KT M00/M01 A3031 RMK A01 T10031006  RH  098%=      5-min Rain = 0
KSC1 090650Z 26001KT M00/M01 A3031 RMK A01 T10041007  RH  098%=      5-min Rain = 0
KSC1 090651Z 26001KT M01/M01 A3031 RMK A01 T10051007  RH  098%=      5-min Rain = 0
KSC1 090652Z 26001KT M01/M01 A3031 RMK A01 T10051008  RH  098%=      5-min Rain = 0
KSC1 090653Z 26001KT M01/M01 A3031 RMK A01 T10051007  RH  098%=      5-min Rain = 0
KSC1 090654Z 26002KT M01/M01 A3031 RMK A01 T10051007  RH  099%=      5-min Rain = 0
KSC1 090655Z 26001KT M01/M01 A3031 RMK A01 T10051007  RH  099%=      5-min Rain = 0
KSC1 090656Z 26002KT M01/M01 A3031 RMK A01 T10051007  RH  099%=      5-min Rain = 0
KSC1 090657Z 26002KT M01/M01 A3031 RMK A01 T10051007  RH  099%=      5-min Rain = 0
KSC1 090658Z 26002KT M01/M01 A3031 RMK A01 T10061007  RH  099%=      5-min Rain = 0
KSC1 090659Z 26002KT M01/M01 A3031 RMK A01 T10061007  RH  099%=      5-min Rain = 0
KSC1 090700Z 26002KT M01/M01 A3031 RMK A01 T10061007  RH  099%=      5-min Rain = 0
KSC1 090701Z 26002KT M01/M01 A3031 RMK A01 T10061007  RH  099%=      5-min Rain = 0
KSC1 090702Z 26002KT M01/M01 A3031 RMK A01 T10061007  RH  100%=      5-min Rain = 0
KSC1 090703Z 26002KT M01/M01 A3031 RMK A01 T10061007  RH  100%=      5-min Rain = 0
KSC1 090704Z 26002KT M01/M01 A3031 RMK A01 T10071007  RH  100%=      5-min Rain = 0
KSC1 090705Z 26002KT M01/M01 A3031 RMK A01 T10071008  RH  100%=      5-min Rain = 0
KSC1 090706Z 26002KT M01/M01 A3031 RMK A01 T10081009  RH  100%=      5-min Rain = 0
KSC1 090707Z 26001KT M01/M01 A3031 RMK A01 T10091009  RH  100%=      5-min Rain = 0
KSC1 090708Z 26001KT M01/M01 A3031 RMK A01 T10101011  RH  100%=      5-min Rain = 0
KSC1 090709Z 26001KT M01/M01 A3031 RMK A01 T10101011  RH  100%=      5-min Rain = 0
KSC1 090710Z 26001KT M01/M01 A3031 RMK A01 T10111011  RH  100%=      5-min Rain = 0
KSC1 090711Z 26001KT M01/M01 A3031 RMK A01 T10111012  RH  100%=      5-min Rain = 0
KSC1 090712Z 26001KT M01/M01 A3031 RMK A01 T10121012  RH  100%=      5-min Rain = 0
KSC1 090713Z 26001KT M01/M01 A3031 RMK A01 T10121012  RH  100%=      5-min Rain = 0
KSC1 090714Z 26001KT M01/M01 A3031 RMK A01 T10131013  RH  100%=      5-min Rain = 0
KSC1 090715Z 26000KT M01/M01 A3031 RMK A01 T10131013  RH  100%=      5-min Rain = 0
KSC1 090716Z 26000KT M01/M01 A3031 RMK A01 T10131014  RH  100%=      5-min Rain = 0
KSC1 090717Z 00000KT M01/M01 A3031 RMK A01 T10141014  RH  100%=      5-min Rain = 0
KSC1 090718Z 00000KT M01/M02 A3031 RMK A01 T10141015  RH  100%=      5-min Rain = 0
KSC1 090719Z 26000KT M01/M02 A3031 RMK A01 T10141015  RH  100%=      5-min Rain = 0
KSC1 090720Z 26000KT M02/M02 A3031 RMK A01 T10151015  RH  100%=      5-min Rain = 0
KSC1 090721Z 26000KT M02/M02 A3031 RMK A01 T10151016  RH  100%=      5-min Rain = 0
KSC1 090722Z 26000KT M02/M02 A3031 RMK A01 T10161016  RH  100%=      5-min Rain = 0
KSC1 090723Z 26000KT M02/M02 A3031 RMK A01 T10161016  RH  100%=      5-min Rain = 0
KSC1 090724Z 00000KT M02/M02 A3031 RMK A01 T10161016  RH  100%=      5-min Rain = 0
KSC1 090725Z 26000KT M02/M02 A3031 RMK A01 T10161016  RH  100%=      5-min Rain = 0
KSC1 090726Z 26000KT M02/M02 A3031 RMK A01 T10161016  RH  100%=      5-min Rain = 0
KSC1 090727Z 26000KT M02/M02 A3031 RMK A01 T10161016  RH  100%=      5-min Rain = 0
KSC1 090728Z 26000KT M02/M02 A3031 RMK A01 T10161016  RH  100%=      5-min Rain = 0
KSC1 090729Z 26000KT M02/M02 A3031 RMK A01 T10151016  RH  100%=      5-min Rain = 0
KSC1 090730Z 00000KT M02/M02 A3031 RMK A01 T10161016  RH  100%=      5-min Rain = 0
KSC1 090731Z 00000KT M02/M02 A3031 RMK A01 T10171017  RH  100%=      5-min Rain = 0
KSC1 090732Z 00000KT M02/M02 A3031 RMK A01 T10171017  RH  100%=      5-min Rain = 0
KSC1 090733Z 00000KT M02/M02 A3031 RMK A01 T10181018  RH  100%=      5-min Rain = 0
KSC1 090734Z 00000KT M02/M02 A3031 RMK A01 T10181018  RH  100%=      5-min Rain = 0
KSC1 090735Z 00000KT M02/M02 A3031 RMK A01 T10181018  RH  100%=      5-min Rain = 0
KSC1 090736Z 00000KT M02/M02 A3031 RMK A01 T10181018  RH  100%=      5-min Rain = 0
KSC1 090737Z 00000KT M02/M02 A3031 RMK A01 T10171017  RH  100%=      5-min Rain = 0
KSC1 090738Z 00000KT M02/M02 A3031 RMK A01 T10161016  RH  100%=      5-min Rain = 0
KSC1 090739Z 00000KT M02/M02 A3031 RMK A01 T10161016  RH  100%=      5-min Rain = 0
KSC1 090740Z 00000KT M02/M02 A3031 RMK A01 T10171018  RH  100%=      5-min Rain = 0
KSC1 090741Z 00000KT M02/M02 A3031 RMK A01 T10181018  RH  100%=      5-min Rain = 0
KSC1 090742Z 00000KT M02/M02 A3031 RMK A01 T10181019  RH  100%=      5-min Rain = 0
KSC1 090743Z 00000KT M02/M02 A3031 RMK A01 T10191019  RH  100%=      5-min Rain = 0
KSC1 090744Z 00000KT M02/M02 A303 RMK A01 T10191019  RH  100%=      5-min Rain = 0
KSC1 090745Z 00000KT M02/M02 A303 RMK A01 T10191019  RH  100%=      5-min Rain = 0
KSC1 090746Z 00000KT M02/M02 A303 RMK A01 T10191020  RH  100%=      5-min Rain = 0
KSC1 090747Z 00000KT M02/M02 A303 RMK A01 T10191019  RH  100%=      5-min Rain = 0
KSC1 090748Z 00000KT M02/M02 A303 RMK A01 T10191019  RH  100%=      5-min Rain = 0
KSC1 090749Z 00000KT M02/M02 A303 RMK A01 T10191019  RH  100%=      5-min Rain = 0
KSC1 090750Z 00000KT M02/M02 A303 RMK A01 T10191019  RH  100%=      5-min Rain = 0
KSC1 090751Z 35000KT M02/M02 A303 RMK A01 T10191019  RH  100%=      5-min Rain = 0
KSC1 090752Z 35000KT M02/M02 A303 RMK A01 T10191020  RH  100%=      5-min Rain = 0
KSC1 090753Z 35001KT M02/M02 A303 RMK A01 T10201020  RH  100%=      5-min Rain = 0
KSC1 090754Z 35001KT M02/M02 A303 RMK A01 T10201020  RH  100%=      5-min Rain = 0
KSC1 090755Z 35000KT M02/M02 A303 RMK A01 T10201021  RH  100%=      5-min Rain = 0
KSC1 090756Z 35001KT M02/M02 A303 RMK A01 T10211021  RH  100%=      5-min Rain = 0
KSC1 090757Z 35000KT M02/M02 A303 RMK A01 T10201021  RH  100%=      5-min Rain = 0
KSC1 090758Z 00000KT M02/M02 A303 RMK A01 T10201020  RH  100%=      5-min Rain = 0
KSC1 090759Z 00000KT M02/M02 A303 RMK A01 T10201020  RH  100%=      5-min Rain = 0
KSC1 090800Z 00000KT M02/M02 A303 RMK A01 T10201020  RH  100%=      5-min Rain = 0
KSC1 090801Z 00000KT M02/M02 A303 RMK A01 T10201020  RH  100%=      5-min Rain = 0
KSC1 090802Z 34000KT M02/M02 A303 RMK A01 T10201020  RH  100%=      5-min Rain = 0
KSC1 090803Z 34000KT M02/M02 A303 RMK A01 T10201020  RH  100%=      5-min Rain = 0
KSC1 090804Z 32000KT M02/M02 A303 RMK A01 T10201020  RH  100%=      5-min Rain = 0
KSC1 090805Z 32000KT M02/M02 A303 RMK A01 T10201021  RH  100%=      5-min Rain = 0
KSC1 090806Z 32000KT M02/M02 A303 RMK A01 T10201020  RH  100%=      5-min Rain = 0
KSC1 090807Z 32000KT M02/M02 A303 RMK A01 T10201020  RH  100%=      5-min Rain = 0
KSC1 090808Z 32000KT M02/M02 A303 RMK A01 T10211021  RH  100%=      5-min Rain = 0
KSC1 090809Z 32000KT M02/M02 A303 RMK A01 T10211021  RH  100%=      5-min Rain = 0
KSC1 090810Z 00000KT M02/M02 A303 RMK A01 T10221022  RH  100%=      5-min Rain = 0
KSC1 090811Z 00000KT M02/M02 A303 RMK A01 T10221022  RH  100%=      5-min Rain = 0
KSC1 090812Z 00000KT M02/M02 A303 RMK A01 T10221022  RH  100%=      5-min Rain = 0
KSC1 090813Z 00000KT M02/M02 A303 RMK A01 T10221023  RH  100%=      5-min Rain = 0
KSC1 090814Z 00000KT M02/M02 A303 RMK A01 T10231023  RH  100%=      5-min Rain = 0
KSC1 090815Z 00000KT M02/M02 A303 RMK A01 T10231023  RH  100%=      5-min Rain = 0
KSC1 090816Z 00000KT M02/M02 A303 RMK A01 T10231023  RH  100%=      5-min Rain = 0
KSC1 090817Z 32000KT M02/M02 A303 RMK A01 T10231024  RH  100%=      5-min Rain = 0
KSC1 090818Z 31001KT M02/M02 A303 RMK A01 T10231024  RH  100%=      5-min Rain = 0
KSC1 090819Z 30001KT M02/M02 A303 RMK A01 T10231024  RH  100%=      5-min Rain = 0
KSC1 090820Z 30001KT M02/M02 A303 RMK A01 T10231023  RH  100%=      5-min Rain = 0
KSC1 090821Z 30001KT M02/M02 A303 RMK A01 T10231024  RH  100%=      5-min Rain = 0
KSC1 090822Z 29001KT M02/M02 A303 RMK A01 T10231024  RH  100%=      5-min Rain = 0
KSC1 090823Z 28001KT M02/M02 A303 RMK A01 T10231023  RH  100%=      5-min Rain = 0
KSC1 090824Z 28002KT M02/M02 A303 RMK A01 T10231024  RH  100%=      5-min Rain = 0
KSC1 090825Z 28002KT M02/M02 A303 RMK A01 T10231023  RH  100%=      5-min Rain = 0
KSC1 090826Z 28002KT M02/M02 A303 RMK A01 T10231023  RH  100%=      5-min Rain = 0
KSC1 090827Z 28002KT M02/M02 A303 RMK A01 T10241024  RH  100%=      5-min Rain = 0
KSC1 090828Z 28002KT M02/M02 A303 RMK A01 T10241024  RH  100%=      5-min Rain = 0
KSC1 090829Z 28002KT M02/M02 A303 RMK A01 T10241024  RH  100%=      5-min Rain = 0
KSC1 090830Z 28002KT M02/M02 A303 RMK A01 T10241024  RH  100%=      5-min Rain = 0
KSC1 090831Z 27002KT M02/M02 A303 RMK A01 T10241024  RH  100%=      5-min Rain = 0
KSC1 090832Z 26002KT M02/M02 A303 RMK A01 T10231024  RH  100%=      5-min Rain = 0
KSC1 090833Z 26002KT M02/M02 A303 RMK A01 T10241024  RH  100%=      5-min Rain = 0
KSC1 090834Z 25002KT M02/M02 A303 RMK A01 T10231023  RH  100%=      5-min Rain = 0
KSC1 090835Z 26002KT M02/M02 A303 RMK A01 T10231023  RH  100%=      5-min Rain = 0
KSC1 090836Z 26002KT M02/M02 A303 RMK A01 T10221022  RH  100%=      5-min Rain = 0
KSC1 090837Z 26002KT M02/M02 A303 RMK A01 T10221023  RH  100%=      5-min Rain = 0
KSC1 090838Z 26002KT M02/M02 A303 RMK A01 T10221022  RH  100%=      5-min Rain = 0
KSC1 090839Z 26002KT M02/M02 A303 RMK A01 T10211021  RH  100%=      5-min Rain = 0
KSC1 090840Z 26002KT M02/M02 A303 RMK A01 T10211021  RH  100%=      5-min Rain = 0
KSC1 090841Z 26002KT M02/M02 A303 RMK A01 T10201020  RH  100%=      5-min Rain = 0
KSC1 090842Z 26002KT M02/M02 A303 RMK A01 T10201020  RH  100%=      5-min Rain = 0
KSC1 090843Z 26002KT M02/M02 A303 RMK A01 T10201020  RH  100%=      5-min Rain = 0
KSC1 090844Z 26001KT M02/M02 A303 RMK A01 T10191020  RH  100%=      5-min Rain = 0
KSC1 090845Z 26001KT M02/M02 A303 RMK A01 T10201020  RH  100%=      5-min Rain = 0
KSC1 090846Z 26001KT M02/M02 A303 RMK A01 T10201020  RH  100%=      5-min Rain = 0
KSC1 090847Z 26001KT M02/M02 A303 RMK A01 T10211021  RH  100%=      5-min Rain = 0
KSC1 090848Z 26001KT M02/M02 A303 RMK A01 T10211021  RH  100%=      5-min Rain = 0
KSC1 090849Z 26001KT M02/M02 A303 RMK A01 T10221022  RH  100%=      5-min Rain = 0
KSC1 090850Z 28001KT M02/M02 A303 RMK A01 T10221022  RH  100%=      5-min Rain = 0
KSC1 090851Z 31001KT M02/M02 A303 RMK A01 T10211021  RH  100%=      5-min Rain = 0
KSC1 090852Z 33001KT M02/M02 A303 RMK A01 T10201020  RH  100%=      5-min Rain = 0
KSC1 090853Z 33001KT M02/M02 A303 RMK A01 T10201020  RH  100%=      5-min Rain = 0
KSC1 090854Z 32001KT M02/M02 A303 RMK A01 T10201020  RH  100%=      5-min Rain = 0
KSC1 090855Z 32002KT M02/M02 A303 RMK A01 T10191019  RH  100%=      5-min Rain = 0
KSC1 090856Z 31002KT M02/M02 A303 RMK A01 T10191019  RH  100%=      5-min Rain = 0
KSC1 090857Z 31002KT M02/M02 A303 RMK A01 T10201020  RH  100%=      5-min Rain = 0
KSC1 090858Z 32002KT M02/M02 A303 RMK A01 T10191020  RH  100%=      5-min Rain = 0
KSC1 090859Z 31001KT M02/M02 A303 RMK A01 T10201020  RH  100%=      5-min Rain = 0
KSC1 090900Z 31001KT M02/M02 A303 RMK A01 T10201020  RH  100%=      5-min Rain = 0
KSC1 090901Z 31001KT M02/M02 A303 RMK A01 T10201020  RH  100%=      5-min Rain = 0
KSC1 090902Z 31001KT M02/M02 A303 RMK A01 T10201020  RH  100%=      5-min Rain = 0
KSC1 090903Z 31002KT M02/M02 A303 RMK A01 T10201020  RH  100%=      5-min Rain = 0
KSC1 090904Z 31001KT M02/M02 A303 RMK A01 T10201020  RH  100%=      5-min Rain = 0
KSC1 090905Z 31001KT M02/M02 A3031 RMK A01 T10201021  RH  100%=      5-min Rain = 0
KSC1 090906Z 32001KT M02/M02 A3031 RMK A01 T10211021  RH  100%=      5-min Rain = 0
KSC1 090907Z 32001KT M02/M02 A3031 RMK A01 T10211021  RH  100%=      5-min Rain = 0
KSC1 090908Z 32002KT M02/M02 A3031 RMK A01 T10211022  RH  100%=      5-min Rain = 0
KSC1 090909Z 32002KT M02/M02 A3031 RMK A01 T10211021  RH  100%=      5-min Rain = 0
KSC1 090910Z 32002KT M02/M02 A3031 RMK A01 T10211022  RH  100%=      5-min Rain = 0
KSC1 090911Z 33002KT M02/M02 A3031 RMK A01 T10211022  RH  100%=      5-min Rain = 0
KSC1 090912Z 33002KT M02/M02 A3031 RMK A01 T10211022  RH  100%=      5-min Rain = 0
KSC1 090913Z 33002KT M02/M02 A3031 RMK A01 T10211021  RH  100%=      5-min Rain = 0
KSC1 090914Z 34002KT M02/M02 A3031 RMK A01 T10201021  RH  100%=      5-min Rain = 0
KSC1 090915Z 33002KT M02/M02 A3031 RMK A01 T10201020  RH  100%=      5-min Rain = 0
KSC1 090916Z 33002KT M02/M02 A3031 RMK A01 T10201020  RH  100%=      5-min Rain = 0
KSC1 090917Z 32002KT M02/M02 A3031 RMK A01 T10191019  RH  100%=      5-min Rain = 0
KSC1 090918Z 33002KT M02/M02 A3031 RMK A01 T10181018  RH  100%=      5-min Rain = 0
KSC1 090919Z 32002KT M02/M02 A3031 RMK A01 T10181018  RH  100%=      5-min Rain = 0
KSC1 090920Z 32002KT M02/M02 A3031 RMK A01 T10171017  RH  100%=      5-min Rain = 0
KSC1 090921Z 32003KT M02/M02 A3031 RMK A01 T10161016  RH  100%=      5-min Rain = 0
KSC1 090922Z 32002KT M02/M02 A3031 RMK A01 T10151015  RH  100%=      5-min Rain = 0
KSC1 090923Z 32002KT M01/M01 A3031 RMK A01 T10141014  RH  100%=      5-min Rain = 0
KSC1 090924Z 32002KT M01/M01 A3031 RMK A01 T10141014  RH  100%=      5-min Rain = 0
KSC1 090925Z 32002KT M01/M01 A3031 RMK A01 T10131013  RH  100%=      5-min Rain = 0
KSC1 090926Z 32003KT M01/M01 A3031 RMK A01 T10131013  RH  100%=      5-min Rain = 0
KSC1 090927Z 32002KT M01/M01 A3031 RMK A01 T10131013  RH  100%=      5-min Rain = 0
KSC1 090928Z 32002KT M01/M01 A3031 RMK A01 T10131013  RH  100%=      5-min Rain = 0
KSC1 090929Z 32002KT M01/M01 A3031 RMK A01 T10131013  RH  100%=      5-min Rain = 0
KSC1 090930Z 32002KT M01/M01 A3031 RMK A01 T10141014  RH  100%=      5-min Rain = 0
KSC1 090931Z 32003KT M01/M01 A3031 RMK A01 T10141014  RH  100%=      5-min Rain = 0
KSC1 090932Z 33003KT M01/M01 A3031 RMK A01 T10141014  RH  100%=      5-min Rain = 0
KSC1 090933Z 32003KT M01/M01 A3031 RMK A01 T10141014  RH  100%=      5-min Rain = 0
KSC1 090934Z 32003KT M01/M01 A3031 RMK A01 T10141014  RH  100%=      5-min Rain = 0
KSC1 090935Z 32003KT M01/M01 A3031 RMK A01 T10141014  RH  100%=      5-min Rain = 0
KSC1 090936Z 32003KT M01/M01 A3031 RMK A01 T10141014  RH  100%=      5-min Rain = 0
KSC1 090937Z 32003KT M01/M01 A3031 RMK A01 T10141014  RH  100%=      5-min Rain = 0
KSC1 090938Z 32003KT M01/M01 A3031 RMK A01 T10141014  RH  100%=      5-min Rain = 0
KSC1 090939Z 32003KT M01/M01 A3031 RMK A01 T10141014  RH  100%=      5-min Rain = 0
KSC1 090940Z 32003KT M01/M01 A3031 RMK A01 T10141014  RH  100%=      5-min Rain = 0
KSC1 090941Z 32003KT M01/M02 A3031 RMK A01 T10141015  RH  100%=      5-min Rain = 0
KSC1 090942Z 32003KT M01/M01 A3031 RMK A01 T10141014  RH  100%=      5-min Rain = 0
KSC1 090943Z 32003KT M01/M02 A3031 RMK A01 T10141015  RH  100%=      5-min Rain = 0
KSC1 090944Z 32003KT M01/M01 A3031 RMK A01 T10141014  RH  100%=      5-min Rain = 0
KSC1 090945Z 32003KT M01/M01 A3031 RMK A01 T10141014  RH  100%=      5-min Rain = 0
KSC1 090946Z 32002KT M02/M02 A3031 RMK A01 T10151015  RH  100%=      5-min Rain = 0
KSC1 090947Z 32002KT M02/M02 A3031 RMK A01 T10151015  RH  100%=      5-min Rain = 0
KSC1 090948Z 32002KT M02/M02 A3031 RMK A01 T10161016  RH  100%=      5-min Rain = 0
KSC1 090949Z 32002KT M02/M02 A3031 RMK A01 T10161016  RH  100%=      5-min Rain = 0
KSC1 090950Z 31002KT M02/M02 A3031 RMK A01 T10161016  RH  100%=      5-min Rain = 0
KSC1 090951Z 30002KT M02/M02 A3031 RMK A01 T10161017  RH  100%=      5-min Rain = 0
KSC1 090952Z 28001KT M02/M02 A3031 RMK A01 T10171017  RH  100%=      5-min Rain = 0
KSC1 090953Z 28002KT M02/M02 A3031 RMK A01 T10171017  RH  100%=      5-min Rain = 0
KSC1 090954Z 28002KT M02/M02 A3031 RMK A01 T10171017  RH  100%=      5-min Rain = 0
KSC1 090955Z 28002KT M02/M02 A3031 RMK A01 T10181018  RH  100%=      5-min Rain = 0
KSC1 090956Z 28002KT M02/M02 A3031 RMK A01 T10191019  RH  100%=      5-min Rain = 0
KSC1 090957Z 29002KT M02/M02 A3031 RMK A01 T10201020  RH  100%=      5-min Rain = 0
KSC1 090958Z 29002KT M02/M02 A3031 RMK A01 T10201020  RH  100%=      5-min Rain = 0
KSC1 090959Z 30002KT M02/M02 A3031 RMK A01 T10201020  RH  100%=      5-min Rain = 0
KSC1 091000Z 31002KT M02/M02 A3031 RMK A01 T10201020  RH  100%=      5-min Rain = 0
KSC1 091001Z 32002KT M02/M02 A3031 RMK A01 T10201021  RH  100%=      5-min Rain = 0
KSC1 091002Z 32002KT M02/M02 A3031 RMK A01 T10211021  RH  100%=      5-min Rain = 0
KSC1 091003Z 33003KT M02/M02 A3031 RMK A01 T10201020  RH  100%=      5-min Rain = 0
KSC1 091004Z 33003KT M02/M02 A3031 RMK A01 T10191019  RH  100%=      5-min Rain = 0
KSC1 091005Z 33003KT M02/M02 A3031 RMK A01 T10191019  RH  100%=      5-min Rain = 0
KSC1 091006Z 33003KT M02/M02 A3031 RMK A01 T10191019  RH  100%=      5-min Rain = 0
KSC1 091007Z 33003KT M02/M02 A3031 RMK A01 T10191019  RH  100%=      5-min Rain = 0
KSC1 091008Z 33003KT M02/M02 A3031 RMK A01 T10191019  RH  100%=      5-min Rain = 0
KSC1 091009Z 33002KT M02/M02 A3031 RMK A01 T10201020  RH  100%=      5-min Rain = 0
KSC1 091010Z 32002KT M02/M02 A3031 RMK A01 T10201020  RH  100%=      5-min Rain = 0
KSC1 091011Z 32003KT M02/M02 A3031 RMK A01 T10211021  RH  100%=      5-min Rain = 0
KSC1 091012Z 31003KT M02/M02 A3031 RMK A01 T10201021  RH  100%=      5-min Rain = 0
KSC1 091013Z 30003KT M02/M02 A3031 RMK A01 T10201020  RH  100%=      5-min Rain = 0
KSC1 091014Z 30003KT M02/M02 A3031 RMK A01 T10211021  RH  100%=      5-min Rain = 0
KSC1 091015Z 30003KT M02/M02 A3031 RMK A01 T10211021  RH  100%=      5-min Rain = 0
KSC1 091016Z 31003KT M02/M02 A3031 RMK A01 T10211021  RH  100%=      5-min Rain = 0
KSC1 091017Z 31003KT M02/M02 A3031 RMK A01 T10211022  RH  100%=      5-min Rain = 0
KSC1 091018Z 31003KT M02/M02 A3031 RMK A01 T10211022  RH  100%=      5-min Rain = 0
KSC1 091019Z 31003KT M02/M02 A3031 RMK A01 T10221022  RH  100%=      5-min Rain = 0
KSC1 091020Z 32003KT M02/M02 A3031 RMK A01 T10221022  RH  100%=      5-min Rain = 0
KSC1 091021Z 32003KT M02/M02 A3031 RMK A01 T10231023  RH  100%=      5-min Rain = 0
KSC1 091022Z 32003KT M02/M02 A3031 RMK A01 T10231023  RH  100%=      5-min Rain = 0
KSC1 091023Z 32003KT M02/M02 A3031 RMK A01 T10241024  RH  100%=      5-min Rain = 0
KSC1 091024Z 32004KT M02/M02 A3031 RMK A01 T10231024  RH  100%=      5-min Rain = 0
KSC1 091025Z 32004KT M02/M02 A3031 RMK A01 T10231024  RH  100%=      5-min Rain = 0
KSC1 091026Z 32004KT M02/M02 A3031 RMK A01 T10231024  RH  100%=      5-min Rain = 0
KSC1 091027Z 32004KT M02/M02 A3031 RMK A01 T10231024  RH  100%=      5-min Rain = 0
KSC1 091028Z 31004KT M02/M02 A3031 RMK A01 T10221022  RH  100%=      5-min Rain = 0
KSC1 091029Z 31003KT M02/M02 A3031 RMK A01 T10221022  RH  100%=      5-min Rain = 0
KSC1 091030Z 31003KT M02/M02 A3032 RMK A01 T10211021  RH  100%=      5-min Rain = 0
KSC1 091031Z 31003KT M02/M02 A3032 RMK A01 T10211021  RH  100%=      5-min Rain = 0
KSC1 091032Z 31003KT M02/M02 A3032 RMK A01 T10201020  RH  100%=      5-min Rain = 0
KSC1 091033Z 31003KT M02/M02 A3032 RMK A01 T10201020  RH  100%=      5-min Rain = 0
KSC1 091034Z 31003KT M02/M02 A3032 RMK A01 T10201020  RH  100%=      5-min Rain = 0
KSC1 091035Z 31003KT M02/M02 A3032 RMK A01 T10201020  RH  100%=      5-min Rain = 0
KSC1 091036Z 31003KT M02/M02 A3031 RMK A01 T10211021  RH  100%=      5-min Rain = 0
KSC1 091037Z 31003KT M02/M02 A3031 RMK A01 T10211021  RH  100%=      5-min Rain = 0
KSC1 091038Z 32003KT M02/M02 A3031 RMK A01 T10211021  RH  100%=      5-min Rain = 0
KSC1 091039Z 31003KT M02/M02 A3031 RMK A01 T10211021  RH  100%=      5-min Rain = 0
KSC1 091040Z 32003KT M02/M02 A3031 RMK A01 T10201020  RH  100%=      5-min Rain = 0
KSC1 091041Z 32003KT M02/M02 A3031 RMK A01 T10191020  RH  100%=      5-min Rain = 0
KSC1 091042Z 31003KT M02/M02 A3031 RMK A01 T10191019  RH  100%=      5-min Rain = 0
KSC1 091043Z 31003KT M02/M02 A3031 RMK A01 T10181018  RH  100%=      5-min Rain = 0
KSC1 091044Z 32003KT M02/M02 A3031 RMK A01 T10181018  RH  100%=      5-min Rain = 0
KSC1 091045Z 31003KT M02/M02 A3031 RMK A01 T10171017  RH  100%=      5-min Rain = 0
KSC1 091046Z 31003KT M02/M02 A3031 RMK A01 T10171017  RH  100%=      5-min Rain = 0
KSC1 091047Z 31003KT M02/M02 A3031 RMK A01 T10161016  RH  100%=      5-min Rain = 0
KSC1 091048Z 31003KT M02/M02 A3032 RMK A01 T10161016  RH  100%=      5-min Rain = 0
KSC1 091049Z 31003KT M02/M02 A3032 RMK A01 T10161016  RH  100%=      5-min Rain = 0
KSC1 091050Z 31003KT M02/M02 A3032 RMK A01 T10161016  RH  100%=      5-min Rain = 0
KSC1 091051Z 31003KT M02/M02 A3032 RMK A01 T10161016  RH  100%=      5-min Rain = 0
KSC1 091052Z 31003KT M02/M02 A3032 RMK A01 T10151015  RH  100%=      5-min Rain = 0
KSC1 091053Z 31003KT M02/M02 A3032 RMK A01 T10151015  RH  100%=      5-min Rain = 0
KSC1 091054Z 31003KT M02/M02 A3032 RMK A01 T10161016  RH  100%=      5-min Rain = 0
KSC1 091055Z 30003KT M02/M02 A3032 RMK A01 T10161016  RH  100%=      5-min Rain = 0
KSC1 091056Z 30003KT M02/M02 A3032 RMK A01 T10161016  RH  100%=      5-min Rain = 0
KSC1 091057Z 30003KT M02/M02 A3032 RMK A01 T10171017  RH  100%=      5-min Rain = 0
KSC1 091058Z 30003KT M02/M02 A3032 RMK A01 T10171018  RH  100%=      5-min Rain = 0
KSC1 091059Z 30003KT M02/M02 A3032 RMK A01 T10181018  RH  100%=      5-min Rain = 0
KSC1 091100Z 30003KT M02/M02 A3032 RMK A01 T10191019  RH  100%=      5-min Rain = 0
KSC1 091101Z 30003KT M02/M02 A3032 RMK A01 T10191019  RH  100%=      5-min Rain = 0
KSC1 091102Z 30003KT M02/M02 A3032 RMK A01 T10191019  RH  100%=      5-min Rain = 0
KSC1 091103Z 30003KT M02/M02 A3032 RMK A01 T10191019  RH  100%=      5-min Rain = 0
KSC1 091104Z 30003KT M02/M02 A3032 RMK A01 T10191019  RH  100%=      5-min Rain = 0
KSC1 091105Z 30003KT M02/M02 A3032 RMK A01 T10191019  RH  100%=      5-min Rain = 0
KSC1 091106Z 30003KT M02/M02 A3032 RMK A01 T10191019  RH  100%=      5-min Rain = 0
KSC1 091107Z 30004KT M02/M02 A3032 RMK A01 T10191019  RH  100%=      5-min Rain = 0
KSC1 091108Z 30004KT M02/M02 A3032 RMK A01 T10191019  RH  100%=      5-min Rain = 0
KSC1 091109Z 30004KT M02/M02 A3032 RMK A01 T10191020  RH  100%=      5-min Rain = 0
KSC1 091110Z 30004KT M02/M02 A3032 RMK A01 T10191019  RH  100%=      5-min Rain = 0
KSC1 091111Z 30003KT M02/M02 A3032 RMK A01 T10191020  RH  100%=      5-min Rain = 0
KSC1 091112Z 30003KT M02/M02 A3032 RMK A01 T10191019  RH  100%=      5-min Rain = 0
KSC1 091113Z 30003KT M02/M02 A3032 RMK A01 T10191019  RH  100%=      5-min Rain = 0
KSC1 091114Z 30003KT M02/M02 A3032 RMK A01 T10191019  RH  100%=      5-min Rain = 0
KSC1 091115Z 30003KT M02/M02 A3032 RMK A01 T10191019  RH  100%=      5-min Rain = 0
KSC1 091116Z 30003KT M02/M02 A3032 RMK A01 T10191019  RH  100%=      5-min Rain = 0
KSC1 091117Z 30004KT M02/M02 A3032 RMK A01 T10191019  RH  100%=      5-min Rain = 0
KSC1 091118Z 30004KT M02/M02 A3032 RMK A01 T10191019  RH  100%=      5-min Rain = 0
KSC1 091119Z 30004KT M02/M02 A3032 RMK A01 T10191019  RH  100%=      5-min Rain = 0
KSC1 091120Z 30004KT M02/M02 A3032 RMK A01 T10191019  RH  100%=      5-min Rain = 0
KSC1 091121Z 30004KT M02/M02 A3032 RMK A01 T10191019  RH  100%=      5-min Rain = 0
KSC1 091122Z 31004KT M02/M02 A3032 RMK A01 T10191019  RH  100%=      5-min Rain = 0
KSC1 091123Z 31004KT M02/M02 A3032 RMK A01 T10191019  RH  100%=      5-min Rain = 0
KSC1 091124Z 31003KT M02/M02 A3032 RMK A01 T10191019  RH  100%=      5-min Rain = 0
KSC1 091125Z 31003KT M02/M02 A3032 RMK A01 T10191019  RH  100%=      5-min Rain = 0
KSC1 091126Z 32003KT M02/M02 A3032 RMK A01 T10191019  RH  100%=      5-min Rain = 0
KSC1 091127Z 32003KT M02/M02 A3032 RMK A01 T10191019  RH  100%=      5-min Rain = 0
KSC1 091128Z 32003KT M02/M02 A3032 RMK A01 T10191020  RH  100%=      5-min Rain = 0
KSC1 091129Z 32003KT M02/M02 A3032 RMK A01 T10201020  RH  100%=      5-min Rain = 0
KSC1 091130Z 32003KT M02/M02 A3032 RMK A01 T10201020  RH  100%=      5-min Rain = 0
KSC1 091131Z 32003KT M02/M02 A3032 RMK A01 T10211021  RH  100%=      5-min Rain = 0
KSC1 091132Z 32003KT M02/M02 A3032 RMK A01 T10211021  RH  100%=      5-min Rain = 0
KSC1 091133Z 33003KT M02/M02 A3032 RMK A01 T10211022  RH  100%=      5-min Rain = 0
KSC1 091134Z 33003KT M02/M02 A3032 RMK A01 T10221023  RH  100%=      5-min Rain = 0
KSC1 091135Z 33003KT M02/M02 A3032 RMK A01 T10231023  RH  100%=      5-min Rain = 0
KSC1 091136Z 33003KT M02/M02 A3032 RMK A01 T10241024  RH  100%=      5-min Rain = 0
KSC1 091137Z 33003KT M02/M02 A3032 RMK A01 T10241024  RH  100%=      5-min Rain = 0
KSC1 091138Z 33003KT M02/M02 A3032 RMK A01 T10241024  RH  100%=      5-min Rain = 0
KSC1 091139Z 33003KT M02/M02 A3032 RMK A01 T10241024  RH  100%=      5-min Rain = 0
KSC1 091140Z 33003KT M02/M02 A3032 RMK A01 T10241024  RH  100%=      5-min Rain = 0
KSC1 091141Z 33003KT M02/M02 A3032 RMK A01 T10241024  RH  100%=      5-min Rain = 0
KSC1 091142Z 33003KT M02/M02 A3032 RMK A01 T10241024  RH  100%=      5-min Rain = 0
KSC1 091143Z 33003KT M02/M02 A3032 RMK A01 T10241024  RH  100%=      5-min Rain = 0
KSC1 091144Z 33004KT M02/M02 A3033 RMK A01 T10241024  RH  100%=      5-min Rain = 0
KSC1 091145Z 33003KT M02/M02 A3033 RMK A01 T10241024  RH  100%=      5-min Rain = 0
KSC1 091146Z 33003KT M03/M03 A3033 RMK A01 T10251025  RH  100%=      5-min Rain = 0
KSC1 091147Z 33003KT M03/M03 A3033 RMK A01 T10251025  RH  100%=      5-min Rain = 0
KSC1 091148Z 33003KT M03/M03 A3032 RMK A01 T10251025  RH  100%=      5-min Rain = 0
KSC1 091149Z 33003KT M02/M02 A3032 RMK A01 T10241024  RH  100%=      5-min Rain = 0
KSC1 091150Z 33003KT M02/M02 A3032 RMK A01 T10241024  RH  100%=      5-min Rain = 0
KSC1 091151Z 34003KT M02/M02 A3032 RMK A01 T10241024  RH  100%=      5-min Rain = 0
KSC1 091152Z 34003KT M02/M02 A3032 RMK A01 T10241024  RH  100%=      5-min Rain = 0
KSC1 091153Z 34003KT M02/M02 A3032 RMK A01 T10241024  RH  100%=      5-min Rain = 0
KSC1 091154Z 34004KT M02/M02 A3032 RMK A01 T10241024  RH  100%=      5-min Rain = 0
KSC1 091155Z 34004KT M02/M02 A3032 RMK A01 T10241024  RH  100%=      5-min Rain = 0
KSC1 091156Z 34004KT M02/M02 A3032 RMK A01 T10241024  RH  100%=      5-min Rain = 0
KSC1 091157Z 34004KT M02/M02 A3032 RMK A01 T10241024  RH  100%=      5-min Rain = 0
KSC1 091158Z 34004KT M02/M02 A3032 RMK A01 T10241024  RH  100%=      5-min Rain = 0
KSC1 091159Z 34004KT M02/M02 A3032 RMK A01 T10241024  RH  100%=      5-min Rain = 0
KSC1 091200Z 34004KT M02/M02 A3032 RMK A01 T10241024  RH  100%=      5-min Rain = 0
KSC1 091201Z 34004KT M02/M02 A3032 RMK A01 T10241024  RH  100%=      5-min Rain = 0
KSC1 091202Z 34004KT M02/M02 A3033 RMK A01 T10231024  RH  100%=      5-min Rain = 0
KSC1 091203Z 33004KT M02/M02 A3033 RMK A01 T10231023  RH  100%=      5-min Rain = 0
KSC1 091204Z 33004KT M02/M02 A3033 RMK A01 T10221022  RH  100%=      5-min Rain = 0
KSC1 091205Z 34004KT M02/M02 A3033 RMK A01 T10221022  RH  100%=      5-min Rain = 0
KSC1 091206Z 33004KT M02/M02 A3033 RMK A01 T10221023  RH  100%=      5-min Rain = 0
KSC1 091207Z 33004KT M02/M02 A3033 RMK A01 T10231023  RH  100%=      5-min Rain = 0
KSC1 091208Z 34004KT M02/M02 A3033 RMK A01 T10221023  RH  100%=      5-min Rain = 0
KSC1 091209Z 34004KT M02/M02 A3033 RMK A01 T10221022  RH  100%=      5-min Rain = 0
KSC1 091210Z 34004KT M02/M02 A3033 RMK A01 T10221023  RH  100%=      5-min Rain = 0
KSC1 091211Z 34003KT M02/M02 A3033 RMK A01 T10221023  RH  100%=      5-min Rain = 0
KSC1 091212Z 34002KT M02/M03 A3033 RMK A01 T10241025  RH  100%=      5-min Rain = 0
KSC1 091213Z 34002KT M03/M03 A3033 RMK A01 T10261027  RH  100%=      5-min Rain = 0
KSC1 091214Z 33002KT M03/M03 A3033 RMK A01 T10271028  RH  100%=      5-min Rain = 0
KSC1 091215Z 33003KT M03/M03 A3033 RMK A01 T10281028  RH  100%=      5-min Rain = 0
KSC1 091216Z 33003KT M03/M03 A3033 RMK A01 T10281028  RH  100%=      5-min Rain = 0
KSC1 091217Z 33003KT M03/M03 A3033 RMK A01 T10281029  RH  100%=      5-min Rain = 0
KSC1 091218Z 32003KT M03/M03 A3033 RMK A01 T10281028  RH  100%=      5-min Rain = 0
KSC1 091219Z 33003KT M03/M03 A3033 RMK A01 T10281028  RH  100%=      5-min Rain = 0
KSC1 091220Z 32003KT M03/M03 A3033 RMK A01 T10271027  RH  100%=      5-min Rain = 0
KSC1 091221Z 33003KT M03/M03 A3033 RMK A01 T10261027  RH  100%=      5-min Rain = 0
KSC1 091222Z 33003KT M03/M03 A3033 RMK A01 T10261026  RH  100%=      5-min Rain = 0
KSC1 091223Z 33003KT M03/M03 A3033 RMK A01 T10251025  RH  100%=      5-min Rain = 0
KSC1 091224Z 33003KT M02/M03 A3033 RMK A01 T10241025  RH  100%=      5-min Rain = 0
KSC1 091225Z 33002KT M02/M02 A3034 RMK A01 T10241024  RH  100%=      5-min Rain = 0
KSC1 091226Z 34002KT M02/M02 A3034 RMK A01 T10241024  RH  100%=      5-min Rain = 0
KSC1 091227Z 34001KT M03/M03 A3034 RMK A01 T10251025  RH  100%=      5-min Rain = 0
KSC1 091228Z 35001KT M03/M03 A3034 RMK A01 T10261027  RH  100%=      5-min Rain = 0
KSC1 091229Z 34001KT M03/M03 A3034 RMK A01 T10261027  RH  100%=      5-min Rain = 0
KSC1 091230Z 33001KT M03/M03 A3034 RMK A01 T10261026  RH  100%=      5-min Rain = 0
KSC1 091231Z 31001KT M03/M03 A3034 RMK A01 T10261026  RH  100%=      5-min Rain = 0
KSC1 091232Z 30001KT M03/M03 A3034 RMK A01 T10251026  RH  100%=      5-min Rain = 0
KSC1 091233Z 31001KT M03/M03 A3034 RMK A01 T10251026  RH  100%=      5-min Rain = 0
KSC1 091234Z 31001KT M03/M03 A3034 RMK A01 T10251025  RH  100%=      5-min Rain = 0
KSC1 091235Z 31001KT M03/M03 A3034 RMK A01 T10251025  RH  100%=      5-min Rain = 0
KSC1 091236Z 31001KT M03/M03 A3034 RMK A01 T10251025  RH  100%=      5-min Rain = 0
KSC1 091237Z 31001KT M03/M03 A3034 RMK A01 T10251025  RH  100%=      5-min Rain = 0
KSC1 091238Z 31001KT M03/M03 A3034 RMK A01 T10251025  RH  100%=      5-min Rain = 0
KSC1 091239Z 33001KT M03/M03 A3034 RMK A01 T10261026  RH  100%=      5-min Rain = 0
KSC1 091240Z 33000KT M03/M03 A3034 RMK A01 T10271027  RH  100%=      5-min Rain = 0
KSC1 091241Z 33000KT M03/M03 A3034 RMK A01 T10281029  RH  100%=      5-min Rain = 0
KSC1 091242Z 33001KT M03/M03 A3034 RMK A01 T10291029  RH  100%=      5-min Rain = 0
KSC1 091243Z 33001KT M03/M03 A3034 RMK A01 T10291029  RH  100%=      5-min Rain = 0
KSC1 091244Z 33001KT M03/M03 A3034 RMK A01 T10291029  RH  100%=      5-min Rain = 0
KSC1 091245Z 35001KT M03/M03 A3034 RMK A01 T10291030  RH  100%=      5-min Rain = 0
KSC1 091246Z 34000KT M03/M03 A3034 RMK A01 T10301030  RH  100%=      5-min Rain = 0
KSC1 091247Z 33001KT M03/M03 A3034 RMK A01 T10301030  RH  100%=      5-min Rain = 0
KSC1 091248Z 33001KT M03/M03 A3034 RMK A01 T10301030  RH  100%=      5-min Rain = 0
KSC1 091249Z 00000KT M03/M03 A3034 RMK A01 T10281028  RH  100%=      5-min Rain = 0
KSC1 091250Z 33000KT M03/M03 A3034 RMK A01 T10261026  RH  100%=      5-min Rain = 0
KSC1 091251Z 29000KT M03/M03 A3034 RMK A01 T10251025  RH  100%=      5-min Rain = 0
KSC1 091252Z 00000KT M03/M03 A3034 RMK A01 T10261026  RH  100%=      5-min Rain = 0
KSC1 091253Z 00000KT M03/M03 A3034 RMK A01 T10291029  RH  100%=      5-min Rain = 0
KSC1 091254Z 00000KT M03/M03 A3034 RMK A01 T10311031  RH  100%=      5-min Rain = 0
KSC1 091255Z 00000KT M03/M03 A3034 RMK A01 T10321033  RH  099%=      5-min Rain = 0
KSC1 091256Z 00000KT M03/M03 A3034 RMK A01 T10321033  RH  099%=      5-min Rain = 0
KSC1 091257Z 00000KT M03/M03 A3034 RMK A01 T10311032  RH  100%=      5-min Rain = 0
KSC1 091258Z 29000KT M03/M03 A3034 RMK A01 T10321032  RH  099%=      5-min Rain = 0
KSC1 091259Z 29001KT M03/M03 A3034 RMK A01 T10311032  RH  100%=      5-min Rain = 0
KSC1 091300Z 29001KT M03/M03 A3034 RMK A01 T10321032  RH  100%=      5-min Rain = 0
KSC1 091301Z 29001KT M03/M03 A3035 RMK A01 T10311032  RH  100%=      5-min Rain = 0
KSC1 091302Z 29001KT M03/M03 A3035 RMK A01 T10311031  RH  100%=      5-min Rain = 0
KSC1 091303Z 29001KT M03/M03 A3035 RMK A01 T10301031  RH  100%=      5-min Rain = 0
KSC1 091304Z 29001KT M03/M03 A3035 RMK A01 T10301031  RH  100%=      5-min Rain = 0
KSC1 091305Z 29002KT M03/M03 A3035 RMK A01 T10311032  RH  100%=      5-min Rain = 0
KSC1 091306Z 28002KT M03/M03 A3035 RMK A01 T10311032  RH  099%=      5-min Rain = 0
KSC1 091307Z 28002KT M03/M03 A3035 RMK A01 T10321032  RH  099%=      5-min Rain = 0
KSC1 091308Z 28002KT M03/M03 A3035 RMK A01 T10311031  RH  100%=      5-min Rain = 0
KSC1 091309Z 27002KT M03/M03 A3035 RMK A01 T10291029  RH  100%=      5-min Rain = 0
KSC1 091310Z 27002KT M03/M03 A3035 RMK A01 T10281028  RH  100%=      5-min Rain = 0
KSC1 091311Z 27002KT M03/M03 A3035 RMK A01 T10281029  RH  100%=      5-min Rain = 0
KSC1 091312Z 27002KT M03/M03 A3035 RMK A01 T10291029  RH  100%=      5-min Rain = 0
KSC1 091313Z 29003KT M03/M03 A3035 RMK A01 T10301030  RH  100%=      5-min Rain = 0
KSC1 091314Z 29003KT M03/M03 A3035 RMK A01 T10291030  RH  100%=      5-min Rain = 0
KSC1 091315Z 29002KT M03/M03 A3035 RMK A01 T10271028  RH  100%=      5-min Rain = 0
KSC1 091316Z 29002KT M03/M03 A3035 RMK A01 T10271027  RH  100%=      5-min Rain = 0
KSC1 091317Z 29002KT M03/M03 A3035 RMK A01 T10291030  RH  099%=      5-min Rain = 0
KSC1 091318Z 28003KT M03/M03 A3035 RMK A01 T10311032  RH  099%=      5-min Rain = 0
KSC1 091319Z 28003KT M03/M03 A3035 RMK A01 T10311032  RH  099%=      5-min Rain = 0
KSC1 091320Z 27003KT M03/M03 A3036 RMK A01 T10301031  RH  099%=      5-min Rain = 0
KSC1 091321Z 27003KT M03/M03 A3036 RMK A01 T10291030  RH  099%=      5-min Rain = 0
KSC1 091322Z 28003KT M03/M03 A3036 RMK A01 T10281028  RH  100%=      5-min Rain = 0
KSC1 091323Z 27003KT M03/M03 A3036 RMK A01 T10271028  RH  100%=      5-min Rain = 0
KSC1 091324Z 27003KT M03/M03 A3036 RMK A01 T10261027  RH  100%=      5-min Rain = 0
KSC1 091325Z 27003KT M03/M03 A3036 RMK A01 T10261026  RH  100%=      5-min Rain = 0
KSC1 091326Z 27003KT M03/M03 A3036 RMK A01 T10261026  RH  100%=      5-min Rain = 0
KSC1 091327Z 27003KT M03/M03 A3036 RMK A01 T10261027  RH  099%=      5-min Rain = 0
KSC1 091328Z 27003KT M03/M03 A3036 RMK A01 T10261026  RH  099%=      5-min Rain = 0
KSC1 091329Z 26004KT M03/M03 A3036 RMK A01 T10251026  RH  099%=      5-min Rain = 0
KSC1 091330Z 27003KT M03/M03 A3036 RMK A01 T10261027  RH  099%=      5-min Rain = 0
KSC1 091331Z 28003KT M03/M03 A3036 RMK A01 T10261027  RH  099%=      5-min Rain = 0
KSC1 091332Z 28003KT M02/M03 A3036 RMK A01 T10241026  RH  099%=      5-min Rain = 0
KSC1 091333Z 28003KT M03/M03 A3036 RMK A01 T10251026  RH  099%=      5-min Rain = 0
KSC1 091334Z 28003KT M03/M03 A3036 RMK A01 T10251026  RH  099%=      5-min Rain = 0
KSC1 091335Z 29003KT M03/M03 A3036 RMK A01 T10251026  RH  099%=      5-min Rain = 0
KSC1 091336Z 28003KT M03/M03 A3036 RMK A01 T10251027  RH  099%=      5-min Rain = 0
KSC1 091337Z 28003KT M03/M03 A3036 RMK A01 T10261028  RH  098%=      5-min Rain = 0
KSC1 091338Z 28003KT M03/M03 A3036 RMK A01 T10261028  RH  098%=      5-min Rain = 0
KSC1 091339Z 28003KT M03/M03 A3036 RMK A01 T10261028  RH  098%=      5-min Rain = 0
KSC1 091340Z 27003KT M03/M03 A3036 RMK A01 T10261028  RH  098%=      5-min Rain = 0
KSC1 091341Z 27003KT M03/M03 A3036 RMK A01 T10261028  RH  098%=      5-min Rain = 0
KSC1 091342Z 27003KT M03/M03 A3037 RMK A01 T10261028  RH  098%=      5-min Rain = 0
KSC1 091343Z 26003KT M03/M03 A3037 RMK A01 T10261028  RH  098%=      5-min Rain = 0
KSC1 091344Z 26003KT M03/M03 A3037 RMK A01 T10261028  RH  098%=      5-min Rain = 0
KSC1 091345Z 27003KT M03/M03 A3037 RMK A01 T10261028  RH  098%=      5-min Rain = 0
KSC1 091346Z 26003KT M03/M03 A3037 RMK A01 T10261028  RH  099%=      5-min Rain = 0
KSC1 091347Z 26003KT M03/M03 A3037 RMK A01 T10251027  RH  099%=      5-min Rain = 0
KSC1 091348Z 26003KT M03/M03 A3037 RMK A01 T10251027  RH  099%=      5-min Rain = 0
KSC1 091349Z 26003KT M03/M03 A3037 RMK A01 T10251026  RH  099%=      5-min Rain = 0
KSC1 091350Z 26003KT M03/M03 A3037 RMK A01 T10251027  RH  099%=      5-min Rain = 0
KSC1 091351Z 25004KT M03/M03 A3037 RMK A01 T10251027  RH  098%=      5-min Rain = 0
KSC1 091352Z 25004KT M03/M03 A3037 RMK A01 T10251027  RH  098%=      5-min Rain = 0
KSC1 091353Z 24004KT M03/M03 A3037 RMK A01 T10251027  RH  098%=      5-min Rain = 0
KSC1 091354Z 24004KT M02/M03 A3037 RMK A01 T10241026  RH  099%=      5-min Rain = 0
KSC1 091355Z 24004KT M02/M03 A3037 RMK A01 T10231025  RH  099%=      5-min Rain = 0
KSC1 091356Z 24004KT M02/M02 A3038 RMK A01 T10231024  RH  099%=      5-min Rain = 0
KSC1 091357Z 24004KT M02/M02 A3038 RMK A01 T10221024  RH  099%=      5-min Rain = 0
KSC1 091358Z 24004KT M02/M02 A3038 RMK A01 T10221023  RH  099%=      5-min Rain = 0
KSC1 091359Z 24004KT M02/M02 A3038 RMK A01 T10221023  RH  099%=      5-min Rain = 0
KSC1 091400Z 25004KT M02/M02 A3038 RMK A01 T10211023  RH  099%=      5-min Rain = 0
KSC1 091401Z 25003KT M02/M02 A3038 RMK A01 T10211022  RH  099%=      5-min Rain = 0
KSC1 091402Z 25004KT M02/M02 A3038 RMK A01 T10211022  RH  099%=      5-min Rain = 0
KSC1 091403Z 25004KT M02/M02 A3038 RMK A01 T10201022  RH  099%=      5-min Rain = 0
KSC1 091404Z 25004KT M02/M02 A3038 RMK A01 T10201022  RH  099%=      5-min Rain = 0
KSC1 091405Z 25004KT M02/M02 A3038 RMK A01 T10191021  RH  099%=      5-min Rain = 0
KSC1 091406Z 26004KT M02/M02 A3038 RMK A01 T10191021  RH  098%=      5-min Rain = 0
KSC1 091407Z 25003KT M02/M02 A3038 RMK A01 T10191021  RH  098%=      5-min Rain = 0
KSC1 091408Z 25003KT M02/M02 A3038 RMK A01 T10181020  RH  098%=      5-min Rain = 0
KSC1 091409Z 25003KT M02/M02 A3038 RMK A01 T10181020  RH  098%=      5-min Rain = 0
KSC1 091410Z 25003KT M02/M02 A3039 RMK A01 T10171020  RH  098%=      5-min Rain = 0
KSC1 091411Z 24003KT M02/M02 A3039 RMK A01 T10171020  RH  098%=      5-min Rain = 0
KSC1 091412Z 25003KT M02/M02 A3039 RMK A01 T10161019  RH  098%=      5-min Rain = 0
KSC1 091413Z 25002KT M02/M02 A3039 RMK A01 T10161019  RH  098%=      5-min Rain = 0
KSC1 091414Z 25002KT M02/M02 A3039 RMK A01 T10151019  RH  098%=      5-min Rain = 0
KSC1 091415Z 25001KT M02/M02 A3039 RMK A01 T10151018  RH  097%=      5-min Rain = 0
KSC1 091416Z 25000KT M01/M02 A3039 RMK A01 T10141018  RH  097%=      5-min Rain = 0
KSC1 091417Z 25001KT M01/M02 A3039 RMK A01 T10141018  RH  097%=      5-min Rain = 0
KSC1 091418Z 26001KT M01/M02 A3039 RMK A01 T10131017  RH  097%=      5-min Rain = 0
KSC1 091419Z 24001KT M01/M02 A3039 RMK A01 T10131017  RH  097%=      5-min Rain = 0
KSC1 091420Z 23001KT M01/M02 A3039 RMK A01 T10121017  RH  097%=      5-min Rain = 0
KSC1 091421Z 25001KT M01/M02 A3039 RMK A01 T10111016  RH  097%=      5-min Rain = 0
KSC1 091422Z 25002KT M01/M02 A3039 RMK A01 T10111016  RH  096%=      5-min Rain = 0
KSC1 091423Z 26001KT M01/M02 A3039 RMK A01 T10111016  RH  096%=      5-min Rain = 0
KSC1 091424Z 28001KT M01/M02 A3039 RMK A01 T10101016  RH  096%=      5-min Rain = 0
KSC1 091425Z 30001KT M01/M02 A3039 RMK A01 T10101017  RH  095%=      5-min Rain = 0
KSC1 091426Z 30001KT M01/M02 A3039 RMK A01 T10101016  RH  095%=      5-min Rain = 0
KSC1 091427Z 30001KT M01/M02 A3039 RMK A01 T10091016  RH  095%=      5-min Rain = 0
KSC1 091428Z 28001KT M01/M02 A3039 RMK A01 T10091016  RH  095%=      5-min Rain = 0
KSC1 091429Z 29001KT M01/M02 A3039 RMK A01 T10091017  RH  095%=      5-min Rain = 0
KSC1 091430Z 28001KT M01/M02 A3039 RMK A01 T10081017  RH  094%=      5-min Rain = 0
KSC1 091431Z 30000KT M01/M02 A3039 RMK A01 T10081016  RH  094%=      5-min Rain = 0
KSC1 091432Z 30001KT M01/M02 A3039 RMK A01 T10071016  RH  094%=      5-min Rain = 0
KSC1 091433Z 28000KT M01/M02 A3039 RMK A01 T10071015  RH  094%=      5-min Rain = 0
KSC1 091434Z 29001KT M01/M02 A3039 RMK A01 T10071016  RH  094%=      5-min Rain = 0
KSC1 091435Z 26001KT M01/M02 A3039 RMK A01 T10071015  RH  094%=      5-min Rain = 0
KSC1 091436Z 28001KT M01/M02 A3039 RMK A01 T10061015  RH  094%=      5-min Rain = 0
KSC1 091437Z 31000KT M01/M02 A3039 RMK A01 T10061015  RH  094%=      5-min Rain = 0
KSC1 091438Z 30002KT M01/M01 A3039 RMK A01 T10051014  RH  094%=      5-min Rain = 0
KSC1 091439Z 30002KT M01/M02 A3039 RMK A01 T10051015  RH  093%=      5-min Rain = 0
KSC1 091440Z 30002KT M01/M02 A3039 RMK A01 T10061016  RH  093%=      5-min Rain = 0
KSC1 091441Z 29002KT M01/M02 A3039 RMK A01 T10061016  RH  093%=      5-min Rain = 0
KSC1 091442Z 30001KT M01/M02 A3039 RMK A01 T10061016  RH  093%=      5-min Rain = 0
KSC1 091443Z 31001KT M01/M02 A3039 RMK A01 T10061017  RH  092%=      5-min Rain = 0
KSC1 091444Z 29002KT M01/M02 A3039 RMK A01 T10061016  RH  093%=      5-min Rain = 0
KSC1 091445Z 30002KT M01/M02 A3039 RMK A01 T10061017  RH  092%=      5-min Rain = 0
KSC1 091446Z 30002KT M01/M02 A3039 RMK A01 T10051016  RH  093%=      5-min Rain = 0
KSC1 091447Z 31002KT M01/M02 A3039 RMK A01 T10051015  RH  093%=      5-min Rain = 0
KSC1 091448Z 27002KT M01/M02 A3039 RMK A01 T10051015  RH  093%=      5-min Rain = 0
KSC1 091449Z 26002KT M00/M02 A3039 RMK A01 T10041015  RH  093%=      5-min Rain = 0
KSC1 091450Z 27001KT M00/M02 A3039 RMK A01 T10041015  RH  093%=      5-min Rain = 0
KSC1 091451Z 28002KT M00/M01 A3039 RMK A01 T10041013  RH  093%=      5-min Rain = 0
KSC1 091452Z 28001KT M00/M01 A3039 RMK A01 T10031012  RH  094%=      5-min Rain = 0
KSC1 091453Z 29001KT M00/M01 A3039 RMK A01 T10031012  RH  094%=      5-min Rain = 0
KSC1 091454Z 28001KT M00/M01 A3039 RMK A01 T10021012  RH  093%=      5-min Rain = 0
KSC1 091455Z 32001KT M00/M01 A3039 RMK A01 T10011011  RH  093%=      5-min Rain = 0
KSC1 091456Z 30001KT M00/M01 A3039 RMK A01 T10011012  RH  093%=      5-min Rain = 0
KSC1 091457Z 30002KT M00/M01 A3039 RMK A01 T10011012  RH  092%=      5-min Rain = 0
KSC1 091458Z 31001KT M00/M01 A3039 RMK A01 T10011013  RH  092%=      5-min Rain = 0
KSC1 091459Z 30002KT M00/M01 A3039 RMK A01 T10011013  RH  092%=      5-min Rain = 0
KSC1 091500Z 29003KT 00/01 A3039 RMK A01 T00000-12  RH  091%=      5-min Rain = 0
KSC1 091501Z 30002KT 00/01 A3039 RMK A01 T00000-14  RH  091%=      5-min Rain = 0
KSC1 091502Z 32002KT 00/02 A3039 RMK A01 T00-00-15  RH  090%=      5-min Rain = 0
KSC1 091503Z 30002KT 00/M01 A3039 RMK A01 T00011013  RH  091%=      5-min Rain = 0
KSC1 091504Z 30003KT 00/M01 A3039 RMK A01 T00011012  RH  091%=      5-min Rain = 0
KSC1 091505Z 31003KT 00/M01 A3039 RMK A01 T00021011  RH  091%=      5-min Rain = 0
KSC1 091506Z 31003KT 00/M01 A3039 RMK A01 T00021012  RH  090%=      5-min Rain = 0
KSC1 091507Z 30003KT 00/M01 A3039 RMK A01 T00021014  RH  089%=      5-min Rain = 0
KSC1 091508Z 31003KT 00/M02 A304 RMK A01 T00021015  RH  089%=      5-min Rain = 0
KSC1 091509Z 31003KT 00/M02 A304 RMK A01 T00021015  RH  089%=      5-min Rain = 0
KSC1 091510Z 32003KT 00/M02 A304 RMK A01 T00021015  RH  088%=      5-min Rain = 0
KSC1 091511Z 31003KT 00/M01 A304 RMK A01 T00021014  RH  089%=      5-min Rain = 0
KSC1 091512Z 31002KT 00/M01 A304 RMK A01 T00031013  RH  089%=      5-min Rain = 0
KSC1 091513Z 31003KT 00/M01 A304 RMK A01 T00041012  RH  089%=      5-min Rain = 0
KSC1 091514Z 30002KT 01/M01 A304 RMK A01 T00051012  RH  089%=      5-min Rain = 0
KSC1 091515Z 32002KT 01/M01 A304 RMK A01 T00051014  RH  087%=      5-min Rain = 0
KSC1 091516Z 30001KT 01/M01 A304 RMK A01 T00051014  RH  087%=      5-min Rain = 0
KSC1 091517Z 30002KT 01/M01 A304 RMK A01 T00061012  RH  088%=      5-min Rain = 0
KSC1 091518Z 29002KT 01/M01 A304 RMK A01 T00061013  RH  087%=      5-min Rain = 0
KSC1 091519Z 29002KT 01/M01 A304 RMK A01 T00061013  RH  087%=      5-min Rain = 0
KSC1 091520Z 29002KT 01/M01 A304 RMK A01 T00061013  RH  087%=      5-min Rain = 0
KSC1 091521Z 29002KT 01/M01 A304 RMK A01 T00061014  RH  087%=      5-min Rain = 0
KSC1 091522Z 30002KT 01/M01 A304 RMK A01 T00061014  RH  087%=      5-min Rain = 0
KSC1 091523Z 29001KT 01/M01 A304 RMK A01 T00071012  RH  087%=      5-min Rain = 0
KSC1 091524Z 29002KT 01/M01 A304 RMK A01 T00081011  RH  087%=      5-min Rain = 0
KSC1 091525Z 31002KT 01/M01 A304 RMK A01 T00091008  RH  088%=      5-min Rain = 0
KSC1 091526Z 32003KT 01/M01 A304 RMK A01 T00091010  RH  087%=      5-min Rain = 0
KSC1 091527Z 33003KT 01/M01 A304 RMK A01 T00091014  RH  085%=      5-min Rain = 0
KSC1 091528Z 34002KT 01/M02 A304 RMK A01 T00091016  RH  084%=      5-min Rain = 0
KSC1 091529Z 28002KT 01/M02 A304 RMK A01 T00091015  RH  084%=      5-min Rain = 0
KSC1 091530Z 30002KT 01/M01 A304 RMK A01 T00101014  RH  084%=      5-min Rain = 0
KSC1 091531Z 32002KT 01/M01 A304 RMK A01 T00121011  RH  085%=      5-min Rain = 0
KSC1 091532Z 32002KT 01/M01 A304 RMK A01 T00121013  RH  083%=      5-min Rain = 0
KSC1 091533Z 32002KT 01/M02 A304 RMK A01 T00121016  RH  081%=      5-min Rain = 0
KSC1 091534Z 31002KT 01/M02 A304 RMK A01 T00121016  RH  082%=      5-min Rain = 0
KSC1 091535Z 32002KT 01/M02 A304 RMK A01 T00121018  RH  081%=      5-min Rain = 0
KSC1 091536Z 31001KT 01/M02 A304 RMK A01 T00111017  RH  081%=      5-min Rain = 0
KSC1 091537Z 29000KT 01/M02 A304 RMK A01 T00121016  RH  082%=      5-min Rain = 0
KSC1 091538Z 28000KT 01/M01 A304 RMK A01 T00131013  RH  083%=      5-min Rain = 0
KSC1 091539Z 30002KT 02/M01 A304 RMK A01 T00151012  RH  082%=      5-min Rain = 0
KSC1 091540Z 33003KT 02/M01 A304 RMK A01 T00151014  RH  081%=      5-min Rain = 0
KSC1 091541Z 31002KT 02/M02 A3041 RMK A01 T00151017  RH  079%=      5-min Rain = 0
KSC1 091542Z 34001KT 02/M02 A3041 RMK A01 T00151017  RH  079%=      5-min Rain = 0
KSC1 091543Z 31002KT 02/M02 A3041 RMK A01 T00161015  RH  080%=      5-min Rain = 0
KSC1 091544Z 32002KT 02/M02 A3041 RMK A01 T00161015  RH  080%=      5-min Rain = 0
KSC1 091545Z 33003KT 02/M01 A3041 RMK A01 T00171013  RH  080%=      5-min Rain = 0
KSC1 091546Z 33003KT 02/M02 A3041 RMK A01 T00181018  RH  077%=      5-min Rain = 0
KSC1 091547Z 33002KT 02/M02 A3041 RMK A01 T00191019  RH  076%=      5-min Rain = 0
KSC1 091548Z 33002KT 02/M02 A3041 RMK A01 T00201019  RH  075%=      5-min Rain = 0
KSC1 091549Z 32003KT 02/M02 A3041 RMK A01 T00211017  RH  076%=      5-min Rain = 0
KSC1 091550Z 32004KT 02/M02 A3041 RMK A01 T00221019  RH  074%=      5-min Rain = 0
KSC1 091551Z 32002KT 02/M02 A3041 RMK A01 T00211019  RH  074%=      5-min Rain = 0
KSC1 091552Z 32003KT 02/M02 A3041 RMK A01 T00211018  RH  075%=      5-min Rain = 0
KSC1 091553Z 32004KT 02/M02 A3041 RMK A01 T00211020  RH  074%=      5-min Rain = 0
KSC1 091554Z 32005KT 02/M02 A3041 RMK A01 T00211023  RH  072%=      5-min Rain = 0
KSC1 091555Z 34004KT 02/M02 A3041 RMK A01 T00211023  RH  073%=      5-min Rain = 0
KSC1 091556Z 33003KT 02/M03 A3041 RMK A01 T00211025  RH  072%=      5-min Rain = 0
KSC1 091557Z 31004KT 02/M02 A3041 RMK A01 T00211022  RH  073%=      5-min Rain = 0
KSC1 091558Z 31002KT 02/M02 A3041 RMK A01 T00221022  RH  073%=      5-min Rain = 0
KSC1 091559Z 31003KT 02/M02 A3041 RMK A01 T00231021  RH  073%=      5-min Rain = 0
KSC1 091600Z 32003KT 03/M02 A3041 RMK A01 T00251020  RH  072%=      5-min Rain = 0
KSC1 091601Z 34005KT 03/M02 A3041 RMK A01 T00271021  RH  071%=      5-min Rain = 0
KSC1 091602Z 33004KT 03/M02 A3042 RMK A01 T00271022  RH  070%=      5-min Rain = 0
KSC1 091603Z 34003KT 03/M02 A3042 RMK A01 T00281022  RH  070%=      5-min Rain = 0
KSC1 091604Z 34003KT 03/M03 A3042 RMK A01 T00281026  RH  067%=      5-min Rain = 0
KSC1 091605Z 32003KT 03/M02 A3042 RMK A01 T00281023  RH  069%=      5-min Rain = 0
KSC1 091606Z 32004KT 03/M02 A3042 RMK A01 T00291022  RH  069%=      5-min Rain = 0
KSC1 091607Z 30004KT 03/M02 A3042 RMK A01 T00291023  RH  069%=      5-min Rain = 0
KSC1 091608Z 31004KT 03/M02 A3042 RMK A01 T00291024  RH  068%=      5-min Rain = 0
KSC1 091609Z 32003KT 03/M02 A3042 RMK A01 T00281023  RH  069%=      5-min Rain = 0
KSC1 091610Z 31003KT 03/M02 A3042 RMK A01 T00291024  RH  068%=      5-min Rain = 0
KSC1 091611Z 32003KT 03/M03 A3042 RMK A01 T00291028  RH  066%=      5-min Rain = 0
KSC1 091612Z 33004KT 03/M03 A3042 RMK A01 T00301026  RH  067%=      5-min Rain = 0
KSC1 091613Z 31005KT 03/M03 A3042 RMK A01 T00321025  RH  066%=      5-min Rain = 0
KSC1 091614Z 32003KT 03/M03 A3042 RMK A01 T00331025  RH  066%=      5-min Rain = 0
KSC1 091615Z 32004KT 03/M03 A3042 RMK A01 T00341025  RH  065%=      5-min Rain = 0
KSC1 091616Z 32004KT 03/M03 A3042 RMK A01 T00341029  RH  063%=      5-min Rain = 0
KSC1 091617Z 32003KT 03/M03 A3042 RMK A01 T00341028  RH  064%=      5-min Rain = 0
KSC1 091618Z 32005KT 04/M03 A3042 RMK A01 T00361026  RH  064%=      5-min Rain = 0
KSC1 091619Z 33004KT 04/M03 A3042 RMK A01 T00361032  RH  061%=      5-min Rain = 0
KSC1 091620Z 32004KT 04/M03 A3042 RMK A01 T00361033  RH  060%=      5-min Rain = 0
KSC1 091621Z 32006KT 04/M03 A3042 RMK A01 T00371033  RH  060%=      5-min Rain = 0
KSC1 091622Z 31005KT 04/M04 A3042 RMK A01 T00371035  RH  059%=      5-min Rain = 0
KSC1 091623Z 33004KT 04/M03 A3042 RMK A01 T00371034  RH  060%=      5-min Rain = 0
KSC1 091624Z 33004KT 04/M03 A3042 RMK A01 T00391033  RH  060%=      5-min Rain = 0
KSC1 091625Z 33004KT 04/M04 A3042 RMK A01 T00401035  RH  058%=      5-min Rain = 0
KSC1 091626Z 35004KT 04/M04 A3042 RMK A01 T00411036  RH  057%=      5-min Rain = 0
KSC1 091627Z 35006KT 04/M04 A3042 RMK A01 T00421042  RH  055%=      5-min Rain = 0
KSC1 091628Z 34005KT 04/M04 A3042 RMK A01 T00421042  RH  054%=      5-min Rain = 0
KSC1 091629Z 34007KT 04/M04 A3042 RMK A01 T00431041  RH  054%=      5-min Rain = 0
KSC1 091630Z 33007KT 04/M04 A3042 RMK A01 T00441044  RH  053%=      5-min Rain = 0
KSC1 091631Z 32008KT 04/M04 A3042 RMK A01 T00431042  RH  054%=      5-min Rain = 0
KSC1 091632Z 32007KT 04/M04 A3042 RMK A01 T00421042  RH  054%=      5-min Rain = 0
KSC1 091633Z 32006KT 04/M04 A3042 RMK A01 T00411041  RH  055%=      5-min Rain = 0
KSC1 091634Z 32005KT 04/M04 A3042 RMK A01 T00411038  RH  056%=      5-min Rain = 0
KSC1 091635Z 32005KT 04/M04 A3042 RMK A01 T00421035  RH  057%=      5-min Rain = 0
KSC1 091636Z 33006KT 04/M04 A3042 RMK A01 T00431038  RH  056%=      5-min Rain = 0
KSC1 091637Z 34006KT 04/M04 A3042 RMK A01 T00431041  RH  054%=      5-min Rain = 0
KSC1 091638Z 33006KT 04/M04 A3042 RMK A01 T00431040  RH  055%=      5-min Rain = 0
KSC1 091639Z 32004KT 04/M04 A3042 RMK A01 T00431037  RH  056%=      5-min Rain = 0
KSC1 091640Z 32006KT 04/M04 A3042 RMK A01 T00431039  RH  055%=      5-min Rain = 0
KSC1 091641Z 34004KT 04/M04 A3042 RMK A01 T00431039  RH  055%=      5-min Rain = 0
KSC1 091642Z 36005KT 05/M04 A3042 RMK A01 T00451042  RH  053%=      5-min Rain = 0
KSC1 091643Z 34006KT 05/M04 A3042 RMK A01 T00451044  RH  052%=      5-min Rain = 0
KSC1 091644Z 34005KT 05/M04 A3042 RMK A01 T00461044  RH  052%=      5-min Rain = 0
KSC1 091645Z 32004KT 05/M05 A3042 RMK A01 T00461046  RH  051%=      5-min Rain = 0
KSC1 091646Z 32004KT 05/M05 A3042 RMK A01 T00471046  RH  051%=      5-min Rain = 0
KSC1 091647Z 32007KT 05/M04 A3042 RMK A01 T00481042  RH  052%=      5-min Rain = 0
KSC1 091648Z 33006KT 05/M04 A3042 RMK A01 T00501044  RH  051%=      5-min Rain = 0
KSC1 091649Z 34004KT 05/M04 A3042 RMK A01 T00511042  RH  051%=      5-min Rain = 0
KSC1 091650Z 33006KT 05/M04 A3041 RMK A01 T00521044  RH  050%=      5-min Rain = 0
KSC1 091651Z 33006KT 05/M05 A3041 RMK A01 T00521046  RH  049%=      5-min Rain = 0
KSC1 091652Z 34006KT 05/M05 A3041 RMK A01 T00521046  RH  049%=      5-min Rain = 0
KSC1 091653Z 35005KT 05/M05 A3041 RMK A01 T00511050  RH  048%=      5-min Rain = 0
KSC1 091654Z 33007KT 05/M05 A3041 RMK A01 T00511050  RH  048%=      5-min Rain = 0
KSC1 091655Z 34005KT 05/M05 A3041 RMK A01 T00511050  RH  048%=      5-min Rain = 0
KSC1 091656Z 32006KT 05/M05 A3041 RMK A01 T00521053  RH  047%=      5-min Rain = 0
KSC1 091657Z 33006KT 05/M05 A3041 RMK A01 T00531054  RH  046%=      5-min Rain = 0
KSC1 091658Z 33008KT 05/M06 A3041 RMK A01 T00531057  RH  045%=      5-min Rain = 0
KSC1 091659Z 34006KT 05/M06 A3042 RMK A01 T00531060  RH  044%=      5-min Rain = 0
KSC1 091700Z 35005KT 05/M07 A3041 RMK A01 T00521065  RH  043%=      5-min Rain = 0
KSC1 091701Z 33005KT 05/M06 A3041 RMK A01 T00521060  RH  044%=      5-min Rain = 0
KSC1 091702Z 33004KT 05/M06 A3041 RMK A01 T00531061  RH  044%=      5-min Rain = 0
KSC1 091703Z 34006KT 06/M06 A3041 RMK A01 T00561056  RH  044%=      5-min Rain = 0
KSC1 091704Z 32006KT 06/M06 A3041 RMK A01 T00581058  RH  043%=      5-min Rain = 0
KSC1 091705Z 33005KT 06/M06 A3041 RMK A01 T00581063  RH  042%=      5-min Rain = 0
KSC1 091706Z 33006KT 06/M06 A3041 RMK A01 T00581059  RH  043%=      5-min Rain = 0
KSC1 091707Z 34005KT 06/M06 A3041 RMK A01 T00601059  RH  042%=      5-min Rain = 0
KSC1 091708Z 34005KT 06/M06 A3041 RMK A01 T00601060  RH  042%=      5-min Rain = 0
KSC1 091709Z 35007KT 06/M06 A3041 RMK A01 T00611062  RH  041%=      5-min Rain = 0
KSC1 091710Z 34007KT 06/M06 A3041 RMK A01 T00601063  RH  041%=      5-min Rain = 0
KSC1 091711Z 32009KT 06/M07 A3041 RMK A01 T00591065  RH  041%=      5-min Rain = 0
KSC1 091712Z 33008KT 06/M06 A3041 RMK A01 T00591063  RH  041%=      5-min Rain = 0
KSC1 091713Z 34008KT 06/M07 A3041 RMK A01 T00581067  RH  040%=      5-min Rain = 0
KSC1 091714Z 35007KT 06/M07 A3041 RMK A01 T00571070  RH  040%=      5-min Rain = 0
KSC1 091715Z 35005KT 06/M07 A3041 RMK A01 T00561071  RH  039%=      5-min Rain = 0
KSC1 091716Z 36007KT 06/M07 A3041 RMK A01 T00571066  RH  041%=      5-min Rain = 0
KSC1 091717Z 34008KT 06/M06 A3041 RMK A01 T00591064  RH  041%=      5-min Rain = 0
KSC1 091718Z 33008KT 06/M07 A3041 RMK A01 T00591068  RH  040%=      5-min Rain = 0
KSC1 091719Z 34008KT 06/M07 A3041 RMK A01 T00591072  RH  038%=      5-min Rain = 0
KSC1 091720Z 34007KT 06/M08 A3041 RMK A01 T00591075  RH  038%=      5-min Rain = 0
KSC1 091721Z 34006KT 06/M07 A3041 RMK A01 T00591072  RH  039%=      5-min Rain = 0
KSC1 091722Z 34006KT 06/M07 A3041 RMK A01 T00591069  RH  039%=      5-min Rain = 0
KSC1 091723Z 33009KT 06/M07 A3041 RMK A01 T00601067  RH  040%=      5-min Rain = 0
KSC1 091724Z 34007KT 06/M06 A3041 RMK A01 T00621062  RH  040%=      5-min Rain = 0
KSC1 091725Z 33006KT 06/M07 A3041 RMK A01 T00631067  RH  039%=      5-min Rain = 0
KSC1 091726Z 33007KT 06/M07 A3041 RMK A01 T00631069  RH  038%=      5-min Rain = 0
KSC1 091727Z 35006KT 06/M07 A3041 RMK A01 T00611072  RH  038%=      5-min Rain = 0
KSC1 091728Z 02007KT 06/M07 A3041 RMK A01 T00611072  RH  038%=      5-min Rain = 0
KSC1 091729Z 00006KT 06/M07 A3041 RMK A01 T00611072  RH  038%=      5-min Rain = 0
KSC1 091730Z 34005KT 06/M07 A3041 RMK A01 T00611068  RH  039%=      5-min Rain = 0
KSC1 091731Z 34007KT 06/M07 A3041 RMK A01 T00641065  RH  039%=      5-min Rain = 0
KSC1 091732Z 34007KT 07/M06 A3041 RMK A01 T00661064  RH  039%=      5-min Rain = 0
KSC1 091733Z 34008KT 07/M07 A3041 RMK A01 T00671067  RH  038%=      5-min Rain = 0
KSC1 091734Z 35007KT 07/M07 A3041 RMK A01 T00671065  RH  038%=      5-min Rain = 0
KSC1 091735Z 34008KT 07/M07 A3041 RMK A01 T00651072  RH  037%=      5-min Rain = 0
KSC1 091736Z 34010KT 06/M07 A3041 RMK A01 T00641072  RH  037%=      5-min Rain = 0
KSC1 091737Z 34008KT 06/M07 A3041 RMK A01 T00641073  RH  037%=      5-min Rain = 0
KSC1 091738Z 33009KT 07/M07 A3041 RMK A01 T00661068  RH  038%=      5-min Rain = 0
KSC1 091739Z 34010KT 07/M07 A3041 RMK A01 T00671069  RH  037%=      5-min Rain = 0
KSC1 091740Z 35010KT 07/M07 A3041 RMK A01 T00661073  RH  036%=      5-min Rain = 0
KSC1 091741Z 35008KT 07/M08 A3041 RMK A01 T00651075  RH  036%=      5-min Rain = 0
KSC1 091742Z 35008KT 07/M07 A3041 RMK A01 T00651072  RH  037%=      5-min Rain = 0
KSC1 091743Z 34006KT 07/M07 A3041 RMK A01 T00651070  RH  037%=      5-min Rain = 0
KSC1 091744Z 00005KT 07/M07 A304 RMK A01 T00651069  RH  038%=      5-min Rain = 0
KSC1 091745Z 34004KT 07/M07 A304 RMK A01 T00651070  RH  037%=      5-min Rain = 0
KSC1 091746Z 33008KT 07/M06 A304 RMK A01 T00681062  RH  039%=      5-min Rain = 0
KSC1 091747Z 34009KT 07/M07 A304 RMK A01 T00691068  RH  037%=      5-min Rain = 0
KSC1 091748Z 34008KT 07/M07 A304 RMK A01 T00671071  RH  036%=      5-min Rain = 0
KSC1 091749Z 34010KT 07/M07 A304 RMK A01 T00671067  RH  038%=      5-min Rain = 0
KSC1 091750Z 34009KT 07/M07 A304 RMK A01 T00671071  RH  037%=      5-min Rain = 0
KSC1 091751Z 33011KT 07/M07 A304 RMK A01 T00651073  RH  037%=      5-min Rain = 0
KSC1 091752Z 33010KT 06/M07 A304 RMK A01 T00641072  RH  037%=      5-min Rain = 0
KSC1 091753Z 33010KT 06/M07 A304 RMK A01 T00641069  RH  038%=      5-min Rain = 0
KSC1 091754Z 35010KT 07/M07 A304 RMK A01 T00651071  RH  037%=      5-min Rain = 0
KSC1 091755Z 35009KT 07/M07 A304 RMK A01 T00651066  RH  039%=      5-min Rain = 0
KSC1 091756Z 35009KT 07/M06 A304 RMK A01 T00671061  RH  039%=      5-min Rain = 0
KSC1 091757Z 35008KT 07/M06 A304 RMK A01 T00681062  RH  039%=      5-min Rain = 0
KSC1 091758Z 36009KT 07/M06 A304 RMK A01 T00681061  RH  039%=      5-min Rain = 0
KSC1 091759Z 01009KT 07/M07 A304 RMK A01 T00681065  RH  038%=      5-min Rain = 0
KSC1 091800Z 01010KT 07/M06 A304 RMK A01 T00671063  RH  039%=      5-min Rain = 0
KSC1 091801Z 35008KT 07/M06 A3039 RMK A01 T00661064  RH  039%=      5-min Rain = 0
KSC1 091802Z 36006KT 07/M06 A3039 RMK A01 T00661062  RH  040%=      5-min Rain = 0
KSC1 091803Z 35007KT 07/M06 A3039 RMK A01 T00681060  RH  040%=      5-min Rain = 0
KSC1 091804Z 34008KT 07/M06 A3039 RMK A01 T00681059  RH  040%=      5-min Rain = 0
KSC1 091805Z 34009KT 07/M06 A3039 RMK A01 T00681062  RH  039%=      5-min Rain = 0
KSC1 091806Z 36007KT 07/M06 A3039 RMK A01 T00671064  RH  038%=      5-min Rain = 0
KSC1 091807Z 35006KT 07/M07 A3039 RMK A01 T00661067  RH  038%=      5-min Rain = 0
KSC1 091808Z 33008KT 07/M06 A3039 RMK A01 T00661063  RH  039%=      5-min Rain = 0
KSC1 091809Z 33008KT 07/M06 A3039 RMK A01 T00671061  RH  040%=      5-min Rain = 0
KSC1 091810Z 34008KT 07/M06 A3039 RMK A01 T00681060  RH  040%=      5-min Rain = 0
KSC1 091811Z 35009KT 07/M06 A3039 RMK A01 T00691059  RH  040%=      5-min Rain = 0
KSC1 091812Z 34007KT 07/M06 A3039 RMK A01 T00691062  RH  039%=      5-min Rain = 0
KSC1 091813Z 34006KT 07/M06 A3039 RMK A01 T00681062  RH  039%=      5-min Rain = 0
KSC1 091814Z 32005KT 07/M06 A3039 RMK A01 T00691062  RH  039%=      5-min Rain = 0
KSC1 091815Z 34005KT 07/M06 A3039 RMK A01 T00691063  RH  038%=      5-min Rain = 0
KSC1 091816Z 34007KT 07/M06 A3039 RMK A01 T00691059  RH  040%=      5-min Rain = 0
KSC1 091817Z 33010KT 07/M06 A3039 RMK A01 T00711058  RH  039%=      5-min Rain = 0
KSC1 091818Z 34008KT 07/M06 A3039 RMK A01 T00691063  RH  038%=      5-min Rain = 0
KSC1 091819Z 35007KT 07/M06 A3039 RMK A01 T00681062  RH  039%=      5-min Rain = 0
KSC1 091820Z 34008KT 07/M06 A3039 RMK A01 T00691059  RH  040%=      5-min Rain = 0
KSC1 091821Z 33006KT 07/M06 A3039 RMK A01 T00691061  RH  039%=      5-min Rain = 0
KSC1 091822Z 35007KT 07/M06 A3039 RMK A01 T00701058  RH  040%=      5-min Rain = 0
KSC1 091823Z 34006KT 07/M06 A3039 RMK A01 T00711059  RH  039%=      5-min Rain = 0
KSC1 091824Z 34007KT 07/M06 A3039 RMK A01 T00711060  RH  039%=      5-min Rain = 0
KSC1 091825Z 35006KT 07/M06 A3039 RMK A01 T00711062  RH  038%=      5-min Rain = 0
KSC1 091826Z 35004KT 07/M06 A3039 RMK A01 T00711057  RH  040%=      5-min Rain = 0
KSC1 091827Z 35004KT 07/M05 A3039 RMK A01 T00741053  RH  040%=      5-min Rain = 0
KSC1 091828Z 33006KT 08/M05 A3038 RMK A01 T00751054  RH  039%=      5-min Rain = 0
KSC1 091829Z 32007KT 08/M06 A3038 RMK A01 T00751059  RH  038%=      5-min Rain = 0
KSC1 091830Z 32008KT 07/M06 A3038 RMK A01 T00721061  RH  038%=      5-min Rain = 0
KSC1 091831Z 32008KT 07/M06 A3038 RMK A01 T00721060  RH  039%=      5-min Rain = 0
KSC1 091832Z 34006KT 07/M06 A3038 RMK A01 T00701064  RH  038%=      5-min Rain = 0
KSC1 091833Z 34005KT 07/M06 A3038 RMK A01 T00701058  RH  040%=      5-min Rain = 0
KSC1 091834Z 31005KT 07/M05 A3038 RMK A01 T00721053  RH  041%=      5-min Rain = 0
KSC1 091835Z 32008KT 08/M05 A3038 RMK A01 T00751050  RH  041%=      5-min Rain = 0
KSC1 091836Z 33009KT 08/M05 A3038 RMK A01 T00761053  RH  039%=      5-min Rain = 0
KSC1 091837Z 33007KT 08/M06 A3038 RMK A01 T00751058  RH  038%=      5-min Rain = 0
KSC1 091838Z 31005KT 07/M05 A3038 RMK A01 T00741053  RH  040%=      5-min Rain = 0
KSC1 091839Z 31006KT 08/M05 A3038 RMK A01 T00761052  RH  040%=      5-min Rain = 0
KSC1 091840Z 31005KT 08/M06 A3038 RMK A01 T00761058  RH  038%=      5-min Rain = 0
KSC1 091841Z 34007KT 07/M06 A3038 RMK A01 T00741059  RH  038%=      5-min Rain = 0
KSC1 091842Z 33007KT 07/M06 A3038 RMK A01 T00741056  RH  039%=      5-min Rain = 0
KSC1 091843Z 34006KT 08/M06 A3038 RMK A01 T00751057  RH  039%=      5-min Rain = 0
KSC1 091844Z 34006KT 08/M06 A3038 RMK A01 T00751061  RH  038%=      5-min Rain = 0
KSC1 091845Z 33007KT 07/M06 A3038 RMK A01 T00741058  RH  039%=      5-min Rain = 0
KSC1 091846Z 33005KT 07/M06 A3038 RMK A01 T00741062  RH  037%=      5-min Rain = 0
KSC1 091847Z 34004KT 07/M06 A3038 RMK A01 T00731062  RH  038%=      5-min Rain = 0
KSC1 091848Z 35006KT 07/M06 A3038 RMK A01 T00731059  RH  038%=      5-min Rain = 0
KSC1 091849Z 34008KT 07/M06 A3038 RMK A01 T00741057  RH  039%=      5-min Rain = 0
KSC1 091850Z 34008KT 08/M06 A3037 RMK A01 T00751056  RH  039%=      5-min Rain = 0
KSC1 091851Z 35009KT 08/M06 A3037 RMK A01 T00751057  RH  038%=      5-min Rain = 0
KSC1 091852Z 35007KT 08/M06 A3037 RMK A01 T00751061  RH  038%=      5-min Rain = 0
KSC1 091853Z 34008KT 07/M06 A3037 RMK A01 T00741061  RH  038%=      5-min Rain = 0
KSC1 091854Z 34007KT 07/M06 A3037 RMK A01 T00731061  RH  038%=      5-min Rain = 0
KSC1 091855Z 34006KT 07/M06 A3037 RMK A01 T00731059  RH  039%=      5-min Rain = 0
KSC1 091856Z 34008KT 07/M06 A3037 RMK A01 T00731061  RH  038%=      5-min Rain = 0
KSC1 091857Z 33008KT 07/M06 A3037 RMK A01 T00731058  RH  039%=      5-min Rain = 0
KSC1 091858Z 33009KT 08/M06 A3037 RMK A01 T00751057  RH  039%=      5-min Rain = 0
KSC1 091859Z 34007KT 08/M06 A3037 RMK A01 T00751058  RH  038%=      5-min Rain = 0
KSC1 091900Z 34008KT 08/M06 A3037 RMK A01 T00771055  RH  039%=      5-min Rain = 0
KSC1 091901Z 35008KT 08/M06 A3037 RMK A01 T00771057  RH  038%=      5-min Rain = 0
KSC1 091902Z 34008KT 08/M06 A3037 RMK A01 T00771058  RH  038%=      5-min Rain = 0
KSC1 091903Z 34007KT 08/M06 A3037 RMK A01 T00761064  RH  036%=      5-min Rain = 0
KSC1 091904Z 33004KT 07/M07 A3037 RMK A01 T00731065  RH  037%=      5-min Rain = 0
KSC1 091905Z 32007KT 07/M06 A3037 RMK A01 T00731064  RH  037%=      5-min Rain = 0
KSC1 091906Z 33007KT 07/M06 A3037 RMK A01 T00731064  RH  037%=      5-min Rain = 0
KSC1 091907Z 33006KT 07/M07 A3037 RMK A01 T00731067  RH  036%=      5-min Rain = 0
KSC1 091908Z 35006KT 07/M06 A3037 RMK A01 T00741063  RH  037%=      5-min Rain = 0
KSC1 091909Z 34005KT 08/M06 A3037 RMK A01 T00761063  RH  037%=      5-min Rain = 0
KSC1 091910Z 34005KT 08/M06 A3037 RMK A01 T00761064  RH  036%=      5-min Rain = 0
KSC1 091911Z 35006KT 08/M06 A3037 RMK A01 T00781059  RH  037%=      5-min Rain = 0
KSC1 091912Z 36005KT 08/M06 A3036 RMK A01 T00791057  RH  037%=      5-min Rain = 0
KSC1 091913Z 36006KT 08/M06 A3036 RMK A01 T00801058  RH  037%=      5-min Rain = 0
KSC1 091914Z 00008KT 08/M06 A3036 RMK A01 T00821055  RH  038%=      5-min Rain = 0
KSC1 091915Z 01007KT 08/M06 A3036 RMK A01 T00811057  RH  037%=      5-min Rain = 0
KSC1 091916Z 00005KT 08/M06 A3036 RMK A01 T00791062  RH  036%=      5-min Rain = 0
KSC1 091917Z 34005KT 08/M06 A3036 RMK A01 T00781060  RH  037%=      5-min Rain = 0
KSC1 091918Z 32005KT 08/M06 A3036 RMK A01 T00781060  RH  037%=      5-min Rain = 0
KSC1 091919Z 36005KT 08/M06 A3036 RMK A01 T00781060  RH  037%=      5-min Rain = 0
KSC1 091920Z 34007KT 08/M06 A3036 RMK A01 T00781059  RH  037%=      5-min Rain = 0
KSC1 091921Z 32007KT 08/M06 A3036 RMK A01 T00791058  RH  037%=      5-min Rain = 0
KSC1 091922Z 31006KT 08/M06 A3036 RMK A01 T00791060  RH  037%=      5-min Rain = 0
KSC1 091923Z 34004KT 08/M06 A3036 RMK A01 T00781062  RH  036%=      5-min Rain = 0
KSC1 091924Z 01005KT 08/M06 A3036 RMK A01 T00781059  RH  037%=      5-min Rain = 0
KSC1 091925Z 36004KT 08/M06 A3036 RMK A01 T00801058  RH  037%=      5-min Rain = 0
KSC1 091926Z 36006KT 08/M06 A3036 RMK A01 T00811057  RH  037%=      5-min Rain = 0
KSC1 091927Z 00007KT 08/M06 A3036 RMK A01 T00821058  RH  036%=      5-min Rain = 0
KSC1 091928Z 01006KT 08/M06 A3036 RMK A01 T00821055  RH  037%=      5-min Rain = 0
KSC1 091929Z 00007KT 08/M06 A3036 RMK A01 T00831056  RH  037%=      5-min Rain = 0
KSC1 091930Z 01006KT 08/M06 A3036 RMK A01 T00821059  RH  036%=      5-min Rain = 0
KSC1 091931Z 01005KT 08/M06 A3036 RMK A01 T00811060  RH  036%=      5-min Rain = 0
KSC1 091932Z 01004KT 08/M06 A3036 RMK A01 T00801060  RH  036%=      5-min Rain = 0
KSC1 091933Z 34004KT 08/M06 A3036 RMK A01 T00801060  RH  036%=      5-min Rain = 0
KSC1 091934Z 36005KT 08/M06 A3036 RMK A01 T00811059  RH  037%=      5-min Rain = 0
KSC1 091935Z 34006KT 08/M06 A3036 RMK A01 T00811060  RH  036%=      5-min Rain = 0
KSC1 091936Z 30005KT 08/M06 A3036 RMK A01 T00811058  RH  037%=      5-min Rain = 0
KSC1 091937Z 33006KT 08/M06 A3036 RMK A01 T00821059  RH  036%=      5-min Rain = 0
KSC1 091938Z 33008KT 08/M06 A3036 RMK A01 T00811060  RH  036%=      5-min Rain = 0
KSC1 091939Z 32006KT 08/M06 A3036 RMK A01 T00811061  RH  036%=      5-min Rain = 0
KSC1 091940Z 32005KT 08/M06 A3036 RMK A01 T00811063  RH  036%=      5-min Rain = 0
KSC1 091941Z 34007KT 08/M07 A3035 RMK A01 T00801066  RH  035%=      5-min Rain = 0
KSC1 091942Z 34005KT 08/M07 A3035 RMK A01 T00791069  RH  034%=      5-min Rain = 0
KSC1 091943Z 36004KT 08/M07 A3035 RMK A01 T00791065  RH  035%=      5-min Rain = 0
KSC1 091944Z 36003KT 08/M06 A3035 RMK A01 T00801063  RH  036%=      5-min Rain = 0
KSC1 091945Z 00003KT 08/M07 A3035 RMK A01 T00811065  RH  035%=      5-min Rain = 0
KSC1 091946Z 34004KT 08/M06 A3035 RMK A01 T00801063  RH  036%=      5-min Rain = 0
KSC1 091947Z 33004KT 08/M06 A3035 RMK A01 T00821060  RH  036%=      5-min Rain = 0
KSC1 091948Z 00009KT 08/M06 A3035 RMK A01 T00831057  RH  036%=      5-min Rain = 0
KSC1 091949Z 36008KT 08/M06 A3035 RMK A01 T00831064  RH  035%=      5-min Rain = 0
KSC1 091950Z 00007KT 08/M06 A3035 RMK A01 T00821061  RH  036%=      5-min Rain = 0
KSC1 091951Z 36008KT 08/M06 A3035 RMK A01 T00821064  RH  035%=      5-min Rain = 0
KSC1 091952Z 00008KT 08/M07 A3035 RMK A01 T00811065  RH  035%=      5-min Rain = 0
KSC1 091953Z 36007KT 08/M06 A3035 RMK A01 T00811064  RH  035%=      5-min Rain = 0
KSC1 091954Z 00004KT 08/M06 A3035 RMK A01 T00811064  RH  035%=      5-min Rain = 0
KSC1 091955Z 34004KT 08/M06 A3035 RMK A01 T00811064  RH  035%=      5-min Rain = 0
KSC1 091956Z 36006KT 08/M06 A3035 RMK A01 T00831060  RH  036%=      5-min Rain = 0
KSC1 091957Z 01007KT 09/M06 A3035 RMK A01 T00851060  RH  035%=      5-min Rain = 0
KSC1 091958Z 35006KT 09/M06 A3035 RMK A01 T00861060  RH  035%=      5-min Rain = 0
KSC1 091959Z 35007KT 09/M06 A3035 RMK A01 T00861061  RH  035%=      5-min Rain = 0
KSC1 092000Z 35007KT 08/M07 A3035 RMK A01 T00841065  RH  034%=      5-min Rain = 0
KSC1 092001Z 34007KT 08/M06 A3035 RMK A01 T00841060  RH  035%=      5-min Rain = 0
KSC1 092002Z 34005KT 08/M06 A3035 RMK A01 T00841063  RH  035%=      5-min Rain = 0
KSC1 092003Z 34005KT 08/M07 A3035 RMK A01 T00821065  RH  034%=      5-min Rain = 0
KSC1 092004Z 36004KT 08/M06 A3035 RMK A01 T00821063  RH  035%=      5-min Rain = 0
KSC1 092005Z 36004KT 08/M06 A3035 RMK A01 T00831060  RH  036%=      5-min Rain = 0
KSC1 092006Z 01006KT 09/M06 A3035 RMK A01 T00851063  RH  035%=      5-min Rain = 0
KSC1 092007Z 34005KT 08/M06 A3035 RMK A01 T00841061  RH  035%=      5-min Rain = 0
KSC1 092008Z 32007KT 08/M07 A3035 RMK A01 T00841067  RH  034%=      5-min Rain = 0
KSC1 092009Z 34008KT 09/M06 A3035 RMK A01 T00851063  RH  035%=      5-min Rain = 0
KSC1 092010Z 35006KT 09/M06 A3035 RMK A01 T00861059  RH  035%=      5-min Rain = 0
KSC1 092011Z 35008KT 09/M06 A3035 RMK A01 T00871063  RH  034%=      5-min Rain = 0
KSC1 092012Z 34006KT 09/M07 A3035 RMK A01 T00861066  RH  033%=      5-min Rain = 0
KSC1 092013Z 00007KT 09/M07 A3035 RMK A01 T00851065  RH  034%=      5-min Rain = 0
KSC1 092014Z 35006KT 09/M06 A3035 RMK A01 T00851062  RH  035%=      5-min Rain = 0
KSC1 092015Z 34004KT 09/M06 A3035 RMK A01 T00861061  RH  035%=      5-min Rain = 0
KSC1 092016Z 34005KT 09/M06 A3035 RMK A01 T00881057  RH  035%=      5-min Rain = 0
KSC1 092017Z 34004KT 09/M06 A3035 RMK A01 T00901057  RH  035%=      5-min Rain = 0
KSC1 092018Z 33006KT 09/M06 A3035 RMK A01 T00901055  RH  036%=      5-min Rain = 0
KSC1 092019Z 33005KT 09/M05 A3035 RMK A01 T00931050  RH  036%=      5-min Rain = 0
KSC1 092020Z 35008KT 09/M06 A3035 RMK A01 T00931055  RH  035%=      5-min Rain = 0
KSC1 092021Z 34006KT 09/M06 A3035 RMK A01 T00901062  RH  034%=      5-min Rain = 0
KSC1 092022Z 33004KT 09/M06 A3035 RMK A01 T00881062  RH  034%=      5-min Rain = 0
KSC1 092023Z 33003KT 09/M06 A3034 RMK A01 T00891056  RH  035%=      5-min Rain = 0
KSC1 092024Z 01007KT 09/M05 A3034 RMK A01 T00911054  RH  035%=      5-min Rain = 0
KSC1 092025Z 35007KT 09/M06 A3034 RMK A01 T00911056  RH  035%=      5-min Rain = 0
KSC1 092026Z 35007KT 09/M06 A3034 RMK A01 T00901060  RH  034%=      5-min Rain = 0
KSC1 092027Z 34006KT 09/M06 A3034 RMK A01 T00881062  RH  034%=      5-min Rain = 0
KSC1 092028Z 00006KT 09/M07 A3034 RMK A01 T00861065  RH  034%=      5-min Rain = 0
KSC1 092029Z 36007KT 09/M06 A3034 RMK A01 T00851064  RH  034%=      5-min Rain = 0
KSC1 092030Z 00008KT 09/M07 A3034 RMK A01 T00851066  RH  034%=      5-min Rain = 0
KSC1 092031Z 35006KT 09/M06 A3034 RMK A01 T00861055  RH  036%=      5-min Rain = 0
KSC1 092032Z 34007KT 09/M06 A3034 RMK A01 T00891055  RH  036%=      5-min Rain = 0
KSC1 092033Z 33007KT 09/M06 A3034 RMK A01 T00891056  RH  035%=      5-min Rain = 0
KSC1 092034Z 34007KT 09/M06 A3034 RMK A01 T00891056  RH  035%=      5-min Rain = 0
KSC1 092035Z 34005KT 09/M06 A3034 RMK A01 T00891059  RH  035%=      5-min Rain = 0
KSC1 092036Z 36004KT 09/M06 A3034 RMK A01 T00871062  RH  034%=      5-min Rain = 0
KSC1 092037Z 00005KT 09/M06 A3034 RMK A01 T00871057  RH  036%=      5-min Rain = 0
KSC1 092038Z 35008KT 09/M06 A3034 RMK A01 T00881061  RH  034%=      5-min Rain = 0
KSC1 092039Z 35008KT 09/M06 A3034 RMK A01 T00871060  RH  035%=      5-min Rain = 0
KSC1 092040Z 00007KT 09/M06 A3034 RMK A01 T00871058  RH  035%=      5-min Rain = 0
KSC1 092041Z 34005KT 09/M06 A3034 RMK A01 T00881056  RH  036%=      5-min Rain = 0
KSC1 092042Z 34006KT 09/M06 A3034 RMK A01 T00881058  RH  035%=      5-min Rain = 0
KSC1 092043Z 33006KT 09/M06 A3034 RMK A01 T00881059  RH  035%=      5-min Rain = 0
KSC1 092044Z 36006KT 09/M06 A3034 RMK A01 T00881061  RH  034%=      5-min Rain = 0
KSC1 092045Z 34005KT 09/M06 A3034 RMK A01 T00871064  RH  034%=      5-min Rain = 0
KSC1 092046Z 00005KT 09/M07 A3034 RMK A01 T00861066  RH  034%=      5-min Rain = 0
KSC1 092047Z 01005KT 09/M06 A3034 RMK A01 T00851062  RH  035%=      5-min Rain = 0
KSC1 092048Z 02005KT 09/M06 A3034 RMK A01 T00861063  RH  034%=      5-min Rain = 0
KSC1 092049Z 34006KT 09/M06 A3034 RMK A01 T00871059  RH  035%=      5-min Rain = 0
KSC1 092050Z 34006KT 09/M06 A3034 RMK A01 T00891058  RH  035%=      5-min Rain = 0
KSC1 092051Z 01006KT 09/M06 A3034 RMK A01 T00901055  RH  035%=      5-min Rain = 0
KSC1 092052Z 01007KT 09/M06 A3034 RMK A01 T00911060  RH  034%=      5-min Rain = 0
KSC1 092053Z 35007KT 09/M06 A3034 RMK A01 T00901061  RH  034%=      5-min Rain = 0
KSC1 092054Z 33007KT 09/M06 A3034 RMK A01 T00901056  RH  035%=      5-min Rain = 0
KSC1 092055Z 33007KT 09/M06 A3034 RMK A01 T00901058  RH  035%=      5-min Rain = 0
KSC1 092056Z 35008KT 09/M06 A3034 RMK A01 T00901056  RH  035%=      5-min Rain = 0
KSC1 092057Z 34007KT 09/M06 A3034 RMK A01 T00901057  RH  035%=      5-min Rain = 0
KSC1 092058Z 36007KT 09/M06 A3034 RMK A01 T00901056  RH  035%=      5-min Rain = 0
KSC1 092059Z 00005KT 09/M06 A3034 RMK A01 T00901059  RH  034%=      5-min Rain = 0
KSC1 092100Z 36005KT 09/M06 A3034 RMK A01 T00891060  RH  034%=      5-min Rain = 0
KSC1 092101Z 33005KT 09/M06 A3034 RMK A01 T00891059  RH  035%=      5-min Rain = 0
KSC1 092102Z 35006KT 09/M06 A3034 RMK A01 T00901056  RH  035%=      5-min Rain = 0
KSC1 092103Z 34007KT 09/M05 A3034 RMK A01 T00911052  RH  036%=      5-min Rain = 0
KSC1 092104Z 34007KT 09/M06 A3034 RMK A01 T00931058  RH  034%=      5-min Rain = 0
KSC1 092105Z 34007KT 09/M06 A3034 RMK A01 T00911059  RH  034%=      5-min Rain = 0
KSC1 092106Z 32007KT 09/M06 A3034 RMK A01 T00911058  RH  034%=      5-min Rain = 0
KSC1 092107Z 33007KT 09/M06 A3034 RMK A01 T00901063  RH  033%=      5-min Rain = 0
KSC1 092108Z 31004KT 09/M07 A3034 RMK A01 T00881065  RH  033%=      5-min Rain = 0
KSC1 092109Z 30005KT 09/M06 A3034 RMK A01 T00881063  RH  034%=      5-min Rain = 0
KSC1 092110Z 31004KT 09/M07 A3034 RMK A01 T00881065  RH  033%=      5-min Rain = 0
KSC1 092111Z 32004KT 09/M06 A3034 RMK A01 T00881063  RH  034%=      5-min Rain = 0
KSC1 092112Z 34007KT 09/M06 A3034 RMK A01 T00891063  RH  034%=      5-min Rain = 0
KSC1 092113Z 34007KT 09/M06 A3034 RMK A01 T00891063  RH  034%=      5-min Rain = 0
KSC1 092114Z 35005KT 09/M07 A3034 RMK A01 T00881065  RH  033%=      5-min Rain = 0
KSC1 092115Z 01004KT 09/M07 A3034 RMK A01 T00881065  RH  033%=      5-min Rain = 0
KSC1 092116Z 02003KT 09/M07 A3034 RMK A01 T00871065  RH  033%=      5-min Rain = 0
KSC1 092117Z 34002KT 09/M06 A3034 RMK A01 T00881062  RH  034%=      5-min Rain = 0
KSC1 092118Z 33005KT 09/M07 A3034 RMK A01 T00891065  RH  033%=      5-min Rain = 0
KSC1 092119Z 34005KT 09/M06 A3034 RMK A01 T00891062  RH  034%=      5-min Rain = 0
KSC1 092120Z 35007KT 09/M06 A3034 RMK A01 T00901057  RH  035%=      5-min Rain = 0
KSC1 092121Z 36004KT 09/M06 A3034 RMK A01 T00911061  RH  034%=      5-min Rain = 0
KSC1 092122Z 33005KT 09/M06 A3034 RMK A01 T00901063  RH  033%=      5-min Rain = 0
KSC1 092123Z 33005KT 09/M06 A3034 RMK A01 T00891060  RH  034%=      5-min Rain = 0
KSC1 092124Z 33005KT 09/M06 A3034 RMK A01 T00901058  RH  035%=      5-min Rain = 0
KSC1 092125Z 32005KT 09/M06 A3034 RMK A01 T00911058  RH  034%=      5-min Rain = 0
KSC1 092126Z 35004KT 09/M06 A3034 RMK A01 T00901061  RH  034%=      5-min Rain = 0
KSC1 092127Z 35004KT 09/M06 A3034 RMK A01 T00891062  RH  034%=      5-min Rain = 0
KSC1 092128Z 00005KT 09/M06 A3034 RMK A01 T00891061  RH  034%=      5-min Rain = 0
KSC1 092129Z 01004KT 09/M07 A3034 RMK A01 T00891067  RH  033%=      5-min Rain = 0
KSC1 092130Z 01005KT 09/M07 A3034 RMK A01 T00881067  RH  033%=      5-min Rain = 0
KSC1 092131Z 00005KT 09/M07 A3034 RMK A01 T00881066  RH  033%=      5-min Rain = 0
KSC1 092132Z 02003KT 09/M07 A3034 RMK A01 T00871068  RH  033%=      5-min Rain = 0
KSC1 092133Z 01003KT 09/M07 A3034 RMK A01 T00871065  RH  034%=      5-min Rain = 0
KSC1 092134Z 35005KT 09/M06 A3034 RMK A01 T00881063  RH  034%=      5-min Rain = 0
KSC1 092135Z 35005KT 09/M06 A3034 RMK A01 T00891062  RH  034%=      5-min Rain = 0
KSC1 092136Z 35005KT 09/M07 A3034 RMK A01 T00881065  RH  033%=      5-min Rain = 0
KSC1 092137Z 00006KT 09/M06 A3034 RMK A01 T00881063  RH  034%=      5-min Rain = 0
KSC1 092138Z 01005KT 09/M06 A3034 RMK A01 T00881064  RH  034%=      5-min Rain = 0
KSC1 092139Z 00006KT 09/M06 A3034 RMK A01 T00881061  RH  034%=      5-min Rain = 0
KSC1 092140Z 01008KT 09/M06 A3034 RMK A01 T00881060  RH  034%=      5-min Rain = 0
KSC1 092141Z 01007KT 09/M06 A3034 RMK A01 T00891060  RH  034%=      5-min Rain = 0
KSC1 092142Z 01007KT 09/M06 A3034 RMK A01 T00891060  RH  034%=      5-min Rain = 0
KSC1 092143Z 36006KT 09/M06 A3034 RMK A01 T00881063  RH  034%=      5-min Rain = 0
KSC1 092144Z 01004KT 09/M06 A3034 RMK A01 T00871062  RH  034%=      5-min Rain = 0
KSC1 092145Z 34004KT 09/M06 A3034 RMK A01 T00891056  RH  035%=      5-min Rain = 0
KSC1 092146Z 33006KT 09/M06 A3034 RMK A01 T00901057  RH  035%=      5-min Rain = 0
KSC1 092147Z 33006KT 09/M06 A3034 RMK A01 T00901060  RH  034%=      5-min Rain = 0
KSC1 092148Z 34006KT 09/M06 A3034 RMK A01 T00901060  RH  034%=      5-min Rain = 0
KSC1 092149Z 34004KT 09/M06 A3034 RMK A01 T00891062  RH  034%=      5-min Rain = 0
KSC1 092150Z 33006KT 09/M06 A3034 RMK A01 T00881060  RH  034%=      5-min Rain = 0
KSC1 092151Z 33005KT 09/M06 A3034 RMK A01 T00881058  RH  035%=      5-min Rain = 0
KSC1 092152Z 33004KT 09/M06 A3034 RMK A01 T00891056  RH  035%=      5-min Rain = 0
KSC1 092153Z 35005KT 09/M06 A3034 RMK A01 T00901056  RH  035%=      5-min Rain = 0
KSC1 092154Z 33005KT 09/M06 A3034 RMK A01 T00911059  RH  034%=      5-min Rain = 0
KSC1 092155Z 33006KT 09/M06 A3034 RMK A01 T00901060  RH  034%=      5-min Rain = 0
KSC1 092156Z 33006KT 09/M06 A3034 RMK A01 T00901059  RH  034%=      5-min Rain = 0
KSC1 092157Z 35006KT 09/M06 A3034 RMK A01 T00901058  RH  035%=      5-min Rain = 0
KSC1 092158Z 35005KT 09/M06 A3034 RMK A01 T00901060  RH  034%=      5-min Rain = 0
KSC1 092159Z 35004KT 09/M06 A3034 RMK A01 T00901057  RH  035%=      5-min Rain = 0
KSC1 092200Z 36005KT 09/M06 A3034 RMK A01 T00901060  RH  034%=      5-min Rain = 0
KSC1 092201Z 34004KT 09/M06 A3034 RMK A01 T00901056  RH  035%=      5-min Rain = 0
KSC1 092202Z 35006KT 09/M05 A3034 RMK A01 T00911053  RH  036%=      5-min Rain = 0
KSC1 092203Z 00005KT 09/M06 A3034 RMK A01 T00911055  RH  035%=      5-min Rain = 0
KSC1 092204Z 35005KT 09/M05 A3034 RMK A01 T00911054  RH  035%=      5-min Rain = 0
KSC1 092205Z 34005KT 09/M06 A3034 RMK A01 T00911055  RH  035%=      5-min Rain = 0
KSC1 092206Z 34006KT 09/M06 A3034 RMK A01 T00911058  RH  034%=      5-min Rain = 0
KSC1 092207Z 34004KT 09/M06 A3034 RMK A01 T00901059  RH  034%=      5-min Rain = 0
KSC1 092208Z 34005KT 09/M06 A3034 RMK A01 T00891061  RH  034%=      5-min Rain = 0
KSC1 092209Z 34004KT 09/M06 A3034 RMK A01 T00891058  RH  035%=      5-min Rain = 0
KSC1 092210Z 33005KT 09/M05 A3034 RMK A01 T00901053  RH  036%=      5-min Rain = 0
KSC1 092211Z 33005KT 09/M06 A3034 RMK A01 T00901057  RH  035%=      5-min Rain = 0
KSC1 092212Z 34007KT 09/M06 A3034 RMK A01 T00901058  RH  035%=      5-min Rain = 0
KSC1 092213Z 34006KT 09/M06 A3034 RMK A01 T00891059  RH  035%=      5-min Rain = 0
KSC1 092214Z 34006KT 09/M06 A3034 RMK A01 T00881060  RH  035%=      5-min Rain = 0
KSC1 092215Z 33004KT 09/M06 A3034 RMK A01 T00881058  RH  035%=      5-min Rain = 0
KSC1 092216Z 33005KT 09/M06 A3034 RMK A01 T00881056  RH  036%=      5-min Rain = 0
KSC1 092217Z 34005KT 09/M06 A3034 RMK A01 T00881057  RH  035%=      5-min Rain = 0
KSC1 092218Z 34005KT 09/M06 A3034 RMK A01 T00881055  RH  036%=      5-min Rain = 0
KSC1 092219Z 35004KT 09/M06 A3034 RMK A01 T00881056  RH  035%=      5-min Rain = 0
KSC1 092220Z 34003KT 09/M06 A3034 RMK A01 T00881057  RH  035%=      5-min Rain = 0
KSC1 092221Z 35005KT 09/M06 A3034 RMK A01 T00891056  RH  035%=      5-min Rain = 0
KSC1 092222Z 34008KT 09/M06 A3034 RMK A01 T00891055  RH  036%=      5-min Rain = 0
KSC1 092223Z 35007KT 09/M06 A3034 RMK A01 T00891056  RH  035%=      5-min Rain = 0
KSC1 092224Z 35007KT 09/M06 A3034 RMK A01 T00881056  RH  036%=      5-min Rain = 0
KSC1 092225Z 35005KT 09/M05 A3034 RMK A01 T00881054  RH  036%=      5-min Rain = 0
KSC1 092226Z 34006KT 09/M05 A3034 RMK A01 T00881053  RH  036%=      5-min Rain = 0
KSC1 092227Z 34004KT 09/M06 A3034 RMK A01 T00881056  RH  036%=      5-min Rain = 0
KSC1 092228Z 35005KT 09/M05 A3034 RMK A01 T00881053  RH  036%=      5-min Rain = 0
KSC1 092229Z 34004KT 09/M06 A3034 RMK A01 T00881055  RH  036%=      5-min Rain = 0
KSC1 092230Z 33003KT 09/M06 A3034 RMK A01 T00881058  RH  035%=      5-min Rain = 0
KSC1 092231Z 32003KT 09/M06 A3034 RMK A01 T00881058  RH  035%=      5-min Rain = 0
KSC1 092232Z 33004KT 09/M06 A3034 RMK A01 T00881058  RH  035%=      5-min Rain = 0
KSC1 092233Z 33005KT 09/M06 A3034 RMK A01 T00871058  RH  035%=      5-min Rain = 0
KSC1 092234Z 32006KT 09/M06 A3034 RMK A01 T00871056  RH  036%=      5-min Rain = 0
KSC1 092235Z 31005KT 09/M06 A3034 RMK A01 T00871057  RH  036%=      5-min Rain = 0
KSC1 092236Z 33004KT 09/M06 A3034 RMK A01 T00871057  RH  036%=      5-min Rain = 0
KSC1 092237Z 33005KT 09/M06 A3034 RMK A01 T00871059  RH  035%=      5-min Rain = 0
KSC1 092238Z 35005KT 09/M06 A3034 RMK A01 T00871059  RH  035%=      5-min Rain = 0
KSC1 092239Z 35007KT 09/M06 A3034 RMK A01 T00871057  RH  035%=      5-min Rain = 0
KSC1 092240Z 34006KT 09/M06 A3034 RMK A01 T00871056  RH  036%=      5-min Rain = 0
KSC1 092241Z 34005KT 09/M06 A3034 RMK A01 T00871055  RH  036%=      5-min Rain = 0
KSC1 092242Z 33005KT 09/M06 A3034 RMK A01 T00861057  RH  036%=      5-min Rain = 0
KSC1 092243Z 34006KT 09/M06 A3034 RMK A01 T00861057  RH  036%=      5-min Rain = 0
KSC1 092244Z 35005KT 09/M06 A3034 RMK A01 T00861058  RH  036%=      5-min Rain = 0
KSC1 092245Z 34005KT 09/M05 A3034 RMK A01 T00861054  RH  037%=      5-min Rain = 0
KSC1 092246Z 32003KT 09/M05 A3034 RMK A01 T00861052  RH  037%=      5-min Rain = 0
KSC1 092247Z 32006KT 09/M05 A3034 RMK A01 T00861051  RH  037%=      5-min Rain = 0
KSC1 092248Z 32006KT 09/M05 A3034 RMK A01 T00871054  RH  037%=      5-min Rain = 0
KSC1 092249Z 33005KT 09/M06 A3034 RMK A01 T00861055  RH  036%=      5-min Rain = 0
KSC1 092250Z 32004KT 09/M06 A3034 RMK A01 T00861056  RH  036%=      5-min Rain = 0
KSC1 092251Z 32005KT 09/M05 A3034 RMK A01 T00861054  RH  037%=      5-min Rain = 0
KSC1 092252Z 32005KT 09/M05 A3034 RMK A01 T00851054  RH  037%=      5-min Rain = 0
KSC1 092253Z 33004KT 09/M06 A3034 RMK A01 T00851055  RH  037%=      5-min Rain = 0
KSC1 092254Z 34004KT 09/M05 A3034 RMK A01 T00851054  RH  037%=      5-min Rain = 0
KSC1 092255Z 34004KT 09/M05 A3034 RMK A01 T00851053  RH  037%=      5-min Rain = 0
KSC1 092256Z 34004KT 09/M05 A3034 RMK A01 T00851053  RH  037%=      5-min Rain = 0
KSC1 092257Z 33005KT 09/M05 A3034 RMK A01 T00851051  RH  038%=      5-min Rain = 0
KSC1 092258Z 32005KT 09/M05 A3034 RMK A01 T00851049  RH  038%=      5-min Rain = 0
KSC1 092259Z 32004KT 08/M05 A3034 RMK A01 T00841051  RH  038%=      5-min Rain = 0
KSC1 092300Z 33006KT 08/M05 A3034 RMK A01 T00841052  RH  038%=      5-min Rain = 0
KSC1 092301Z 33006KT 08/M05 A3034 RMK A01 T00841054  RH  037%=      5-min Rain = 0
KSC1 092302Z 33005KT 08/M05 A3034 RMK A01 T00831053  RH  038%=      5-min Rain = 0
KSC1 092303Z 34005KT 08/M05 A3034 RMK A01 T00831053  RH  038%=      5-min Rain = 0
KSC1 092304Z 34005KT 08/M05 A3034 RMK A01 T00821052  RH  038%=      5-min Rain = 0
KSC1 092305Z 34005KT 08/M05 A3034 RMK A01 T00821053  RH  038%=      5-min Rain = 0
KSC1 092306Z 34006KT 08/M05 A3034 RMK A01 T00811053  RH  038%=      5-min Rain = 0
KSC1 092307Z 34005KT 08/M05 A3034 RMK A01 T00811053  RH  038%=      5-min Rain = 0
KSC1 092308Z 33004KT 08/M05 A3034 RMK A01 T00811052  RH  039%=      5-min Rain = 0
KSC1 092309Z 33006KT 08/M05 A3034 RMK A01 T00811050  RH  039%=      5-min Rain = 0
KSC1 092310Z 34007KT 08/M05 A3034 RMK A01 T00811049  RH  039%=      5-min Rain = 0
KSC1 092311Z 34006KT 08/M05 A3034 RMK A01 T00801048  RH  040%=      5-min Rain = 0
KSC1 092312Z 34006KT 08/M05 A3034 RMK A01 T00801048  RH  040%=      5-min Rain = 0
KSC1 092313Z 34007KT 08/M05 A3034 RMK A01 T00791047  RH  040%=      5-min Rain = 0
KSC1 092314Z 34006KT 08/M05 A3034 RMK A01 T00791048  RH  040%=      5-min Rain = 0
KSC1 092315Z 35005KT 08/M05 A3034 RMK A01 T00791047  RH  041%=      5-min Rain = 0
KSC1 092316Z 36005KT 08/M05 A3034 RMK A01 T00781047  RH  041%=      5-min Rain = 0
KSC1 092317Z 36005KT 08/M05 A3034 RMK A01 T00781047  RH  041%=      5-min Rain = 0
KSC1 092318Z 34005KT 08/M05 A3034 RMK A01 T00771046  RH  041%=      5-min Rain = 0
KSC1 092319Z 35003KT 08/M05 A3034 RMK A01 T00771046  RH  041%=      5-min Rain = 0
KSC1 092320Z 35004KT 08/M05 A3034 RMK A01 T00761045  RH  042%=      5-min Rain = 0
KSC1 092321Z 34003KT 08/M05 A3034 RMK A01 T00761045  RH  042%=      5-min Rain = 0
KSC1 092322Z 34004KT 08/M04 A3034 RMK A01 T00751044  RH  042%=      5-min Rain = 0
KSC1 092323Z 35003KT 07/M04 A3034 RMK A01 T00741043  RH  043%=      5-min Rain = 0
KSC1 092324Z 35004KT 07/M04 A3034 RMK A01 T00741043  RH  043%=      5-min Rain = 0
KSC1 092325Z 35004KT 07/M04 A3034 RMK A01 T00731043  RH  043%=      5-min Rain = 0
KSC1 092326Z 35004KT 07/M04 A3034 RMK A01 T00721044  RH  044%=      5-min Rain = 0
KSC1 092327Z 35004KT 07/M05 A3034 RMK A01 T00711045  RH  043%=      5-min Rain = 0
KSC1 092328Z 35005KT 07/M05 A3034 RMK A01 T00711045  RH  043%=      5-min Rain = 0
KSC1 092329Z 35004KT 07/M05 A3034 RMK A01 T00711046  RH  043%=      5-min Rain = 0
KSC1 092330Z 35005KT 07/M05 A3034 RMK A01 T00711046  RH  043%=      5-min Rain = 0
KSC1 092331Z 35005KT 07/M05 A3034 RMK A01 T00701048  RH  043%=      5-min Rain = 0
KSC1 092332Z 35005KT 07/M05 A3034 RMK A01 T00701047  RH  043%=      5-min Rain = 0
KSC1 092333Z 35005KT 07/M05 A3034 RMK A01 T00691048  RH  043%=      5-min Rain = 0
KSC1 092334Z 36004KT 07/M05 A3034 RMK A01 T00691048  RH  043%=      5-min Rain = 0
KSC1 092335Z 35004KT 07/M05 A3034 RMK A01 T00681047  RH  044%=      5-min Rain = 0
KSC1 092336Z 35005KT 07/M05 A3034 RMK A01 T00671048  RH  044%=      5-min Rain = 0
KSC1 092337Z 35005KT 07/M05 A3034 RMK A01 T00671048  RH  044%=      5-min Rain = 0
KSC1 092338Z 35004KT 07/M05 A3034 RMK A01 T00661048  RH  044%=      5-min Rain = 0
KSC1 092339Z 35004KT 07/M05 A3034 RMK A01 T00661048  RH  044%=      5-min Rain = 0
KSC1 092340Z 35004KT 07/M05 A3035 RMK A01 T00651047  RH  044%=      5-min Rain = 0
KSC1 092341Z 35004KT 06/M05 A3035 RMK A01 T00641048  RH  045%=      5-min Rain = 0
KSC1 092342Z 35004KT 06/M05 A3035 RMK A01 T00641047  RH  045%=      5-min Rain = 0
KSC1 092343Z 35004KT 06/M05 A3035 RMK A01 T00631048  RH  045%=      5-min Rain = 0
KSC1 092344Z 35004KT 06/M05 A3035 RMK A01 T00631048  RH  045%=      5-min Rain = 0
KSC1 092345Z 35003KT 06/M05 A3035 RMK A01 T00631047  RH  045%=      5-min Rain = 0
KSC1 092346Z 34004KT 06/M05 A3035 RMK A01 T00621047  RH  046%=      5-min Rain = 0
KSC1 092347Z 34004KT 06/M05 A3035 RMK A01 T00611047  RH  046%=      5-min Rain = 0
KSC1 092348Z 34004KT 06/M05 A3035 RMK A01 T00611046  RH  046%=      5-min Rain = 0
KSC1 092349Z 34003KT 06/M05 A3035 RMK A01 T00611046  RH  046%=      5-min Rain = 0
KSC1 092350Z 34003KT 06/M05 A3035 RMK A01 T00601046  RH  046%=      5-min Rain = 0
KSC1 092351Z 35003KT 06/M05 A3035 RMK A01 T00601046  RH  047%=      5-min Rain = 0
KSC1 092352Z 35003KT 06/M05 A3035 RMK A01 T00601045  RH  047%=      5-min Rain = 0
KSC1 092353Z 35003KT 06/M05 A3035 RMK A01 T00591045  RH  047%=      5-min Rain = 0
KSC1 092354Z 35003KT 06/M05 A3035 RMK A01 T00581045  RH  048%=      5-min Rain = 0
KSC1 092355Z 35003KT 06/M05 A3035 RMK A01 T00571045  RH  048%=      5-min Rain = 0
KSC1 092356Z 34003KT 06/M04 A3035 RMK A01 T00571044  RH  048%=      5-min Rain = 0
KSC1 092357Z 34003KT 06/M04 A3035 RMK A01 T00561044  RH  048%=      5-min Rain = 0
KSC1 092358Z 34003KT 06/M04 A3035 RMK A01 T00561044  RH  049%=      5-min Rain = 0
KSC1 092359Z 35003KT 06/M04 A3035 RMK A01 T00551044  RH  049%=      5-min Rain = 0
KSC1 100000Z 35003KT 05/M04 A3035 RMK A01 T00541044  RH  049%=      5-min Rain = 0
KSC1 100001Z 35003KT 05/M04 A3035 RMK A01 T00541044  RH  049%=      5-min Rain = 0
KSC1 100002Z 34003KT 05/M04 A3035 RMK A01 T00531044  RH  049%=      5-min Rain = 0
KSC1 100003Z 34003KT 05/M04 A3035 RMK A01 T00531044  RH  049%=      5-min Rain = 0
KSC1 100004Z 34003KT 05/M04 A3035 RMK A01 T00531044  RH  050%=      5-min Rain = 0
KSC1 100005Z 34003KT 05/M04 A3035 RMK A01 T00521044  RH  050%=      5-min Rain = 0
KSC1 100006Z 34002KT 05/M04 A3035 RMK A01 T00521044  RH  050%=      5-min Rain = 0
KSC1 100007Z 34002KT 05/M04 A3035 RMK A01 T00511044  RH  050%=      5-min Rain = 0
KSC1 100008Z 34003KT 05/M04 A3035 RMK A01 T00511043  RH  050%=      5-min Rain = 0
KSC1 100009Z 34002KT 05/M04 A3035 RMK A01 T00501043  RH  051%=      5-min Rain = 0
KSC1 100010Z 34003KT 05/M04 A3035 RMK A01 T00501043  RH  051%=      5-min Rain = 0
KSC1 100011Z 34002KT 05/M04 A3035 RMK A01 T00501043  RH  051%=      5-min Rain = 0
KSC1 100012Z 34003KT 05/M04 A3035 RMK A01 T00491043  RH  051%=      5-min Rain = 0
KSC1 100013Z 34002KT 05/M04 A3035 RMK A01 T00491043  RH  052%=      5-min Rain = 0
KSC1 100014Z 34002KT 05/M04 A3035 RMK A01 T00471041  RH  053%=      5-min Rain = 0
KSC1 100015Z 35003KT 05/M04 A3035 RMK A01 T00461038  RH  054%=      5-min Rain = 0
KSC1 100016Z 35003KT 05/M04 A3035 RMK A01 T00451036  RH  056%=      5-min Rain = 0
KSC1 100017Z 35003KT 04/M04 A3035 RMK A01 T00431035  RH  057%=      5-min Rain = 0
KSC1 100018Z 35003KT 04/M03 A3035 RMK A01 T00411033  RH  058%=      5-min Rain = 0
KSC1 100019Z 35003KT 04/M03 A3035 RMK A01 T00391031  RH  060%=      5-min Rain = 0
KSC1 100020Z 35003KT 04/M03 A3036 RMK A01 T00381031  RH  061%=      5-min Rain = 0
KSC1 100021Z 35003KT 04/M03 A3036 RMK A01 T00361032  RH  061%=      5-min Rain = 0
KSC1 100022Z 35003KT 04/M03 A3036 RMK A01 T00351034  RH  061%=      5-min Rain = 0
KSC1 100023Z 35003KT 03/M03 A3036 RMK A01 T00331033  RH  062%=      5-min Rain = 0
KSC1 100024Z 35003KT 03/M03 A3036 RMK A01 T00321032  RH  063%=      5-min Rain = 0
KSC1 100025Z 35003KT 03/M03 A3036 RMK A01 T00311030  RH  064%=      5-min Rain = 0
KSC1 100026Z 35003KT 03/M03 A3036 RMK A01 T00301031  RH  064%=      5-min Rain = 0
KSC1 100027Z 35003KT 03/M03 A3036 RMK A01 T00291034  RH  063%=      5-min Rain = 0
KSC1 100028Z 34003KT 03/M03 A3036 RMK A01 T00281034  RH  063%=      5-min Rain = 0
KSC1 100029Z 34003KT 03/M03 A3036 RMK A01 T00281032  RH  064%=      5-min Rain = 0
KSC1 100030Z 34002KT 03/M03 A3036 RMK A01 T00271032  RH  065%=      5-min Rain = 0
KSC1 100031Z 34003KT 03/M03 A3036 RMK A01 T00261034  RH  064%=      5-min Rain = 0
KSC1 100032Z 34002KT 03/M04 A3036 RMK A01 T00261037  RH  063%=      5-min Rain = 0
KSC1 100033Z 34002KT 03/M04 A3036 RMK A01 T00261036  RH  064%=      5-min Rain = 0
KSC1 100034Z 33003KT 03/M03 A3036 RMK A01 T00261034  RH  065%=      5-min Rain = 0
KSC1 100035Z 33003KT 03/M03 A3036 RMK A01 T00251032  RH  066%=      5-min Rain = 0
KSC1 100036Z 33003KT 02/M03 A3036 RMK A01 T00231030  RH  068%=      5-min Rain = 0
KSC1 100037Z 33003KT 02/M03 A3036 RMK A01 T00221031  RH  068%=      5-min Rain = 0
KSC1 100038Z 33002KT 02/M03 A3036 RMK A01 T00211029  RH  070%=      5-min Rain = 0
KSC1 100039Z 33002KT 02/M03 A3036 RMK A01 T00201027  RH  071%=      5-min Rain = 0
KSC1 100040Z 32002KT 02/M03 A3036 RMK A01 T00181026  RH  073%=      5-min Rain = 0
KSC1 100041Z 32002KT 02/M03 A3036 RMK A01 T00171025  RH  073%=      5-min Rain = 0
KSC1 100042Z 32002KT 02/M03 A3036 RMK A01 T00161025  RH  074%=      5-min Rain = 0
KSC1 100043Z 32002KT 02/M03 A3036 RMK A01 T00151027  RH  073%=      5-min Rain = 0
KSC1 100044Z 32002KT 02/M03 A3036 RMK A01 T00151029  RH  073%=      5-min Rain = 0
KSC1 100045Z 31002KT 02/M03 A3036 RMK A01 T00151028  RH  073%=      5-min Rain = 0
KSC1 100046Z 31002KT 01/M03 A3036 RMK A01 T00141029  RH  073%=      5-min Rain = 0
KSC1 100047Z 31002KT 01/M03 A3036 RMK A01 T00141031  RH  072%=      5-min Rain = 0
KSC1 100048Z 32002KT 01/M03 A3036 RMK A01 T00141032  RH  071%=      5-min Rain = 0
KSC1 100049Z 31002KT 01/M03 A3036 RMK A01 T00141030  RH  072%=      5-min Rain = 0
KSC1 100050Z 30002KT 01/M03 A3036 RMK A01 T00141027  RH  074%=      5-min Rain = 0
KSC1 100051Z 30002KT 01/M03 A3036 RMK A01 T00131026  RH  075%=      5-min Rain = 0
KSC1 100052Z 31003KT 01/M03 A3036 RMK A01 T00121027  RH  076%=      5-min Rain = 0
KSC1 100053Z 31003KT 01/M03 A3037 RMK A01 T00121028  RH  075%=      5-min Rain = 0
KSC1 100054Z 31003KT 01/M03 A3037 RMK A01 T00121028  RH  075%=      5-min Rain = 0
KSC1 100055Z 32003KT 01/M03 A3037 RMK A01 T00121029  RH  074%=      5-min Rain = 0
KSC1 100056Z 32003KT 01/M03 A3037 RMK A01 T00131030  RH  073%=      5-min Rain = 0
KSC1 100057Z 32003KT 01/M03 A3037 RMK A01 T00141030  RH  072%=      5-min Rain = 0
KSC1 100058Z 32003KT 02/M03 A3037 RMK A01 T00161031  RH  071%=      5-min Rain = 0
KSC1 100059Z 32003KT 02/M03 A3037 RMK A01 T00161031  RH  071%=      5-min Rain = 0
KSC1 100100Z 32003KT 02/M03 A3037 RMK A01 T00171031  RH  071%=      5-min Rain = 0
KSC1 100101Z 32003KT 02/M03 A3037 RMK A01 T00171031  RH  070%=      5-min Rain = 0
KSC1 100102Z 32003KT 02/M03 A3037 RMK A01 T00171031  RH  070%=      5-min Rain = 0
KSC1 100103Z 32004KT 02/M03 A3037 RMK A01 T00171032  RH  070%=      5-min Rain = 0
KSC1 100104Z 32004KT 02/M03 A3037 RMK A01 T00171032  RH  070%=      5-min Rain = 0
KSC1 100105Z 32004KT 02/M03 A3037 RMK A01 T00171032  RH  070%=      5-min Rain = 0
KSC1 100106Z 32004KT 02/M03 A3037 RMK A01 T00171032  RH  070%=      5-min Rain = 0
KSC1 100107Z 33004KT 02/M03 A3037 RMK A01 T00181032  RH  069%=      5-min Rain = 0
KSC1 100108Z 33005KT 02/M03 A3037 RMK A01 T00181033  RH  069%=      5-min Rain = 0
KSC1 100109Z 33004KT 02/M03 A3037 RMK A01 T00191034  RH  068%=      5-min Rain = 0
KSC1 100110Z 33004KT 02/M03 A3037 RMK A01 T00201034  RH  067%=      5-min Rain = 0
KSC1 100111Z 33005KT 02/M04 A3037 RMK A01 T00211035  RH  066%=      5-min Rain = 0
KSC1 100112Z 32005KT 02/M04 A3037 RMK A01 T00221035  RH  066%=      5-min Rain = 0
KSC1 100113Z 32005KT 02/M04 A3037 RMK A01 T00231036  RH  065%=      5-min Rain = 0
KSC1 100114Z 32004KT 02/M04 A3037 RMK A01 T00231037  RH  065%=      5-min Rain = 0
KSC1 100115Z 32004KT 02/M04 A3037 RMK A01 T00241037  RH  064%=      5-min Rain = 0
KSC1 100116Z 32005KT 02/M04 A3037 RMK A01 T00241037  RH  064%=      5-min Rain = 0
KSC1 100117Z 31004KT 02/M04 A3037 RMK A01 T00241036  RH  064%=      5-min Rain = 0
KSC1 100118Z 31004KT 03/M04 A3037 RMK A01 T00251036  RH  064%=      5-min Rain = 0
KSC1 100119Z 32004KT 02/M04 A3037 RMK A01 T00241037  RH  064%=      5-min Rain = 0
KSC1 100120Z 31004KT 02/M04 A3037 RMK A01 T00241036  RH  064%=      5-min Rain = 0
KSC1 100121Z 31004KT 02/M04 A3037 RMK A01 T00231036  RH  065%=      5-min Rain = 0
KSC1 100122Z 31004KT 02/M04 A3037 RMK A01 T00231036  RH  065%=      5-min Rain = 0
KSC1 100123Z 31003KT 02/M04 A3037 RMK A01 T00221035  RH  066%=      5-min Rain = 0
KSC1 100124Z 31003KT 02/M04 A3037 RMK A01 T00221035  RH  066%=      5-min Rain = 0
KSC1 100125Z 31003KT 02/M04 A3037 RMK A01 T00211035  RH  067%=      5-min Rain = 0
KSC1 100126Z 31003KT 02/M03 A3037 RMK A01 T00201034  RH  067%=      5-min Rain = 0
KSC1 100127Z 31004KT 02/M03 A3037 RMK A01 T00191034  RH  068%=      5-min Rain = 0
KSC1 100128Z 31003KT 02/M03 A3037 RMK A01 T00181033  RH  069%=      5-min Rain = 0
KSC1 100129Z 31003KT 02/M03 A3037 RMK A01 T00161034  RH  069%=      5-min Rain = 0
KSC1 100130Z 31003KT 02/M03 A3037 RMK A01 T00151034  RH  070%=      5-min Rain = 0
KSC1 100131Z 31003KT 01/M03 A3037 RMK A01 T00131034  RH  071%=      5-min Rain = 0
KSC1 100132Z 30002KT 01/M04 A3037 RMK A01 T00111035  RH  072%=      5-min Rain = 0
KSC1 100133Z 30002KT 01/M04 A3037 RMK A01 T00081035  RH  073%=      5-min Rain = 0
KSC1 100134Z 29002KT 01/M04 A3037 RMK A01 T00051035  RH  075%=      5-min Rain = 0
KSC1 100135Z 28002KT 00/M03 A3037 RMK A01 T00021034  RH  077%=      5-min Rain = 0
KSC1 100136Z 27002KT 00/03 A3037 RMK A01 T00000-34  RH  077%=      5-min Rain = 0
KSC1 100137Z 26002KT M00/M03 A3037 RMK A01 T10011034  RH  078%=      5-min Rain = 0
KSC1 100138Z 25002KT M00/M03 A3038 RMK A01 T10031034  RH  079%=      5-min Rain = 0
KSC1 100139Z 25003KT M00/M03 A3038 RMK A01 T10041034  RH  080%=      5-min Rain = 0
KSC1 100140Z 25003KT M01/M03 A3038 RMK A01 T10051034  RH  081%=      5-min Rain = 0
KSC1 100141Z 25003KT M01/M03 A3038 RMK A01 T10061034  RH  081%=      5-min Rain = 0
KSC1 100142Z 24003KT M01/M03 A3038 RMK A01 T10071033  RH  082%=      5-min Rain = 0
KSC1 100143Z 24003KT M01/M03 A3038 RMK A01 T10061033  RH  082%=      5-min Rain = 0
KSC1 100144Z 24003KT M00/M03 A3038 RMK A01 T10021033  RH  080%=      5-min Rain = 0
KSC1 100145Z 24003KT 00/M03 A3038 RMK A01 T00021034  RH  077%=      5-min Rain = 0
KSC1 100146Z 24003KT 01/M03 A3037 RMK A01 T00061034  RH  075%=      5-min Rain = 0
KSC1 100147Z 24004KT 01/M04 A3038 RMK A01 T00081035  RH  073%=      5-min Rain = 0
KSC1 100148Z 24003KT 01/M04 A3038 RMK A01 T00091036  RH  072%=      5-min Rain = 0
KSC1 100149Z 24004KT 01/M04 A3037 RMK A01 T00091037  RH  071%=      5-min Rain = 0
KSC1 100150Z 23004KT 01/M04 A3038 RMK A01 T00091037  RH  071%=      5-min Rain = 0
KSC1 100151Z 23004KT 01/M04 A3038 RMK A01 T00081037  RH  072%=      5-min Rain = 0
KSC1 100152Z 23004KT 01/M04 A3038 RMK A01 T00071037  RH  072%=      5-min Rain = 0
KSC1 100153Z 23004KT 01/M04 A3038 RMK A01 T00081036  RH  072%=      5-min Rain = 0
KSC1 100154Z 23004KT 01/M04 A3038 RMK A01 T00111036  RH  071%=      5-min Rain = 0
KSC1 100155Z 23004KT 01/M04 A3038 RMK A01 T00131036  RH  070%=      5-min Rain = 0
KSC1 100156Z 23004KT 01/M04 A3038 RMK A01 T00131036  RH  070%=      5-min Rain = 0
KSC1 100157Z 24004KT 01/M04 A3038 RMK A01 T00131037  RH  070%=      5-min Rain = 0
KSC1 100158Z 24004KT 01/M04 A3038 RMK A01 T00111037  RH  070%=      5-min Rain = 0
KSC1 100159Z 24004KT 01/M04 A3038 RMK A01 T00111037  RH  070%=      5-min Rain = 0
KSC1 100200Z 25004KT 01/M04 A3038 RMK A01 T00111036  RH  071%=      5-min Rain = 0
KSC1 100201Z 24004KT 01/M04 A3038 RMK A01 T00101037  RH  071%=      5-min Rain = 0
KSC1 100202Z 24004KT 01/M04 A3038 RMK A01 T00101037  RH  071%=      5-min Rain = 0
KSC1 100203Z 24004KT 01/M04 A3038 RMK A01 T00101037  RH  071%=      5-min Rain = 0
KSC1 100204Z 23004KT 01/M04 A3038 RMK A01 T00091037  RH  071%=      5-min Rain = 0
KSC1 100205Z 23004KT 01/M04 A3038 RMK A01 T00091037  RH  071%=      5-min Rain = 0
KSC1 100206Z 22005KT 01/M04 A3038 RMK A01 T00101037  RH  071%=      5-min Rain = 0
KSC1 100207Z 22005KT 01/M04 A3038 RMK A01 T00111037  RH  071%=      5-min Rain = 0
KSC1 100208Z 22005KT 01/M04 A3038 RMK A01 T00111037  RH  071%=      5-min Rain = 0
KSC1 100209Z 23004KT 01/M04 A3038 RMK A01 T00101037  RH  071%=      5-min Rain = 0
KSC1 100210Z 23004KT 01/M04 A3038 RMK A01 T00101037  RH  071%=      5-min Rain = 0
KSC1 100211Z 23004KT 01/M04 A3038 RMK A01 T00091037  RH  071%=      5-min Rain = 0
KSC1 100212Z 23004KT 01/M04 A3038 RMK A01 T00091037  RH  071%=      5-min Rain = 0
KSC1 100213Z 24004KT 01/M04 A3038 RMK A01 T00081037  RH  072%=      5-min Rain = 0
KSC1 100214Z 25004KT 01/M04 A3038 RMK A01 T00081037  RH  072%=      5-min Rain = 0
KSC1 100215Z 25003KT 01/M04 A3038 RMK A01 T00081037  RH  072%=      5-min Rain = 0
KSC1 100216Z 26003KT 01/M04 A3039 RMK A01 T00081036  RH  072%=      5-min Rain = 0
KSC1 100217Z 26003KT 01/M04 A3039 RMK A01 T00081036  RH  073%=      5-min Rain = 0
KSC1 100218Z 27003KT 01/M04 A3039 RMK A01 T00081035  RH  073%=      5-min Rain = 0
KSC1 100219Z 26003KT 01/M03 A3039 RMK A01 T00071034  RH  074%=      5-min Rain = 0
KSC1 100220Z 26003KT 01/M03 A3039 RMK A01 T00071034  RH  074%=      5-min Rain = 0
KSC1 100221Z 26004KT 01/M03 A3039 RMK A01 T00061034  RH  074%=      5-min Rain = 0
KSC1 100222Z 27003KT 01/M04 A3039 RMK A01 T00051035  RH  075%=      5-min Rain = 0
KSC1 100223Z 26003KT 00/M04 A3039 RMK A01 T00041035  RH  075%=      5-min Rain = 0
KSC1 100224Z 26003KT 00/M04 A3039 RMK A01 T00041035  RH  076%=      5-min Rain = 0
KSC1 100225Z 26003KT 00/M04 A3039 RMK A01 T00031035  RH  076%=      5-min Rain = 0
KSC1 100226Z 26003KT 00/M04 A3039 RMK A01 T00021035  RH  076%=      5-min Rain = 0
KSC1 100227Z 26003KT 00/M04 A3039 RMK A01 T00011035  RH  076%=      5-min Rain = 0
KSC1 100228Z 26003KT 00/04 A3039 RMK A01 T00000-35  RH  077%=      5-min Rain = 0
KSC1 100229Z 25003KT 00/03 A3039 RMK A01 T00-00-34  RH  078%=      5-min Rain = 0
KSC1 100230Z 24002KT M00/M04 A3039 RMK A01 T10021035  RH  079%=      5-min Rain = 0
KSC1 100231Z 24002KT M00/M04 A3039 RMK A01 T10041036  RH  079%=      5-min Rain = 0
KSC1 100232Z 23003KT M01/M04 A3039 RMK A01 T10061036  RH  080%=      5-min Rain = 0
KSC1 100233Z 23003KT M01/M04 A3039 RMK A01 T10071036  RH  081%=      5-min Rain = 0
KSC1 100234Z 22003KT M01/M04 A3039 RMK A01 T10091035  RH  082%=      5-min Rain = 0
KSC1 100235Z 22003KT M01/M04 A3039 RMK A01 T10101035  RH  083%=      5-min Rain = 0
KSC1 100236Z 22003KT M01/M03 A3039 RMK A01 T10111034  RH  084%=      5-min Rain = 0
KSC1 100237Z 23003KT M01/M03 A3039 RMK A01 T10121034  RH  085%=      5-min Rain = 0
KSC1 100238Z 23003KT M01/M04 A3039 RMK A01 T10131035  RH  085%=      5-min Rain = 0
KSC1 100239Z 23003KT M01/M04 A3039 RMK A01 T10131035  RH  085%=      5-min Rain = 0
KSC1 100240Z 24003KT M01/M04 A3039 RMK A01 T10141036  RH  085%=      5-min Rain = 0
KSC1 100241Z 24003KT M01/M04 A3039 RMK A01 T10141036  RH  085%=      5-min Rain = 0
KSC1 100242Z 25003KT M01/M04 A3039 RMK A01 T10141036  RH  085%=      5-min Rain = 0
KSC1 100243Z 25003KT M02/M04 A3039 RMK A01 T10151035  RH  086%=      5-min Rain = 0
KSC1 100244Z 26003KT M02/M04 A3039 RMK A01 T10151035  RH  086%=      5-min Rain = 0
KSC1 100245Z 26003KT M02/M04 A3039 RMK A01 T10151035  RH  086%=      5-min Rain = 0
KSC1 100246Z 27003KT M02/M04 A3039 RMK A01 T10161035  RH  087%=      5-min Rain = 0
KSC1 100247Z 26003KT M02/M03 A3039 RMK A01 T10161034  RH  087%=      5-min Rain = 0
KSC1 100248Z 27003KT M02/M03 A3039 RMK A01 T10161034  RH  088%=      5-min Rain = 0
KSC1 100249Z 27003KT M02/M03 A3039 RMK A01 T10171033  RH  089%=      5-min Rain = 0
KSC1 100250Z 27002KT M02/M03 A3039 RMK A01 T10171033  RH  089%=      5-min Rain = 0
KSC1 100251Z 27002KT M02/M03 A3039 RMK A01 T10171033  RH  089%=      5-min Rain = 0
KSC1 100252Z 26003KT M02/M03 A3039 RMK A01 T10181033  RH  089%=      5-min Rain = 0
KSC1 100253Z 26003KT M02/M03 A3039 RMK A01 T10181033  RH  089%=      5-min Rain = 0
KSC1 100254Z 25003KT M02/M03 A3039 RMK A01 T10181034  RH  089%=      5-min Rain = 0
KSC1 100255Z 25003KT M02/M04 A3039 RMK A01 T10191035  RH  089%=      5-min Rain = 0
KSC1 100256Z 25003KT M02/M04 A3039 RMK A01 T10191035  RH  089%=      5-min Rain = 0
KSC1 100257Z 25003KT M02/M04 A3039 RMK A01 T10201035  RH  089%=      5-min Rain = 0
KSC1 100258Z 24003KT M02/M04 A3039 RMK A01 T10201035  RH  090%=      5-min Rain = 0
KSC1 100259Z 24003KT M02/M04 A3039 RMK A01 T10211036  RH  090%=      5-min Rain = 0
KSC1 100300Z 23003KT M02/M04 A3039 RMK A01 T10221036  RH  090%=      5-min Rain = 0
KSC1 100301Z 23004KT M02/M04 A3039 RMK A01 T10231036  RH  090%=      5-min Rain = 0
KSC1 100302Z 22004KT M02/M04 A3039 RMK A01 T10231036  RH  091%=      5-min Rain = 0
KSC1 100303Z 22004KT M02/M04 A3039 RMK A01 T10231035  RH  091%=      5-min Rain = 0
KSC1 100304Z 22004KT M02/M04 A3039 RMK A01 T10231035  RH  091%=      5-min Rain = 0
KSC1 100305Z 22004KT M02/M03 A3039 RMK A01 T10211034  RH  091%=      5-min Rain = 0
KSC1 100306Z 22004KT M02/M03 A3039 RMK A01 T10201034  RH  090%=      5-min Rain = 0
KSC1 100307Z 23004KT M02/M04 A3039 RMK A01 T10201035  RH  090%=      5-min Rain = 0
KSC1 100308Z 23004KT M02/M04 A3039 RMK A01 T10201036  RH  089%=      5-min Rain = 0
KSC1 100309Z 23004KT M02/M04 A3039 RMK A01 T10211037  RH  089%=      5-min Rain = 0
KSC1 100310Z 23004KT M02/M04 A3039 RMK A01 T10211037  RH  089%=      5-min Rain = 0
KSC1 100311Z 23004KT M02/M04 A3039 RMK A01 T10211037  RH  089%=      5-min Rain = 0
KSC1 100312Z 23004KT M02/M04 A3039 RMK A01 T10211037  RH  089%=      5-min Rain = 0
KSC1 100313Z 23004KT M02/M04 A3039 RMK A01 T10201036  RH  089%=      5-min Rain = 0
KSC1 100314Z 23004KT M02/M04 A3039 RMK A01 T10211037  RH  088%=      5-min Rain = 0
KSC1 100315Z 23004KT M02/M04 A3039 RMK A01 T10211038  RH  088%=      5-min Rain = 0
KSC1 100316Z 23003KT M02/M04 A3039 RMK A01 T10221038  RH  089%=      5-min Rain = 0
KSC1 100317Z 23003KT M02/M04 A3039 RMK A01 T10211036  RH  090%=      5-min Rain = 0
KSC1 100318Z 23004KT M02/M03 A3039 RMK A01 T10181033  RH  090%=      5-min Rain = 0
KSC1 100319Z 23004KT M02/M03 A3039 RMK A01 T10161032  RH  089%=      5-min Rain = 0
KSC1 100320Z 24004KT M02/M03 A3039 RMK A01 T10151033  RH  087%=      5-min Rain = 0
KSC1 100321Z 24004KT M01/M03 A3039 RMK A01 T10141034  RH  087%=      5-min Rain = 0
KSC1 100322Z 24004KT M01/M03 A3039 RMK A01 T10141034  RH  086%=      5-min Rain = 0
KSC1 100323Z 24004KT M01/M04 A3039 RMK A01 T10141035  RH  086%=      5-min Rain = 0
KSC1 100324Z 24003KT M01/M04 A3039 RMK A01 T10131035  RH  085%=      5-min Rain = 0
KSC1 100325Z 24003KT M01/M03 A3039 RMK A01 T10121034  RH  085%=      5-min Rain = 0
KSC1 100326Z 24003KT M01/M04 A3039 RMK A01 T10121035  RH  084%=      5-min Rain = 0
KSC1 100327Z 24003KT M01/M04 A3039 RMK A01 T10131037  RH  084%=      5-min Rain = 0
KSC1 100328Z 24004KT M01/M04 A3039 RMK A01 T10141037  RH  085%=      5-min Rain = 0
KSC1 100329Z 24004KT M01/M04 A3039 RMK A01 T10141036  RH  085%=      5-min Rain = 0
KSC1 100330Z 25004KT M01/M04 A3039 RMK A01 T10141036  RH  085%=      5-min Rain = 0
KSC1 100331Z 25004KT M01/M04 A3039 RMK A01 T10121035  RH  085%=      5-min Rain = 0
KSC1 100332Z 25004KT M01/M04 A3039 RMK A01 T10121035  RH  084%=      5-min Rain = 0
KSC1 100333Z 25004KT M01/M04 A3039 RMK A01 T10111036  RH  083%=      5-min Rain = 0
KSC1 100334Z 26003KT M01/M04 A3039 RMK A01 T10101037  RH  082%=      5-min Rain = 0
KSC1 100335Z 27003KT M01/M04 A3039 RMK A01 T10101038  RH  082%=      5-min Rain = 0
KSC1 100336Z 27003KT M01/M04 A3039 RMK A01 T10101038  RH  082%=      5-min Rain = 0
KSC1 100337Z 28003KT M01/M04 A3039 RMK A01 T10111037  RH  082%=      5-min Rain = 0
KSC1 100338Z 28003KT M01/M04 A3039 RMK A01 T10111037  RH  082%=      5-min Rain = 0
KSC1 100339Z 27003KT M01/M04 A3039 RMK A01 T10111037  RH  082%=      5-min Rain = 0
KSC1 100340Z 27003KT M01/M04 A3039 RMK A01 T10111037  RH  082%=      5-min Rain = 0
KSC1 100341Z 27004KT M01/M04 A3039 RMK A01 T10121038  RH  083%=      5-min Rain = 0
KSC1 100342Z 26004KT M01/M04 A3039 RMK A01 T10131038  RH  083%=      5-min Rain = 0
KSC1 100343Z 25004KT M01/M04 A3039 RMK A01 T10141038  RH  083%=      5-min Rain = 0
KSC1 100344Z 25004KT M01/M04 A3039 RMK A01 T10141039  RH  084%=      5-min Rain = 0
KSC1 100345Z 24004KT M02/M04 A3039 RMK A01 T10151040  RH  083%=      5-min Rain = 0
KSC1 100346Z 25004KT M02/M04 A3039 RMK A01 T10161040  RH  083%=      5-min Rain = 0
KSC1 100347Z 25004KT M02/M04 A3039 RMK A01 T10171041  RH  084%=      5-min Rain = 0
KSC1 100348Z 25004KT M02/M04 A3039 RMK A01 T10171041  RH  084%=      5-min Rain = 0
KSC1 100349Z 26004KT M02/M04 A3039 RMK A01 T10171040  RH  084%=      5-min Rain = 0
KSC1 100350Z 26004KT M02/M04 A3039 RMK A01 T10171040  RH  085%=      5-min Rain = 0
KSC1 100351Z 26004KT M02/M04 A3039 RMK A01 T10181040  RH  085%=      5-min Rain = 0
KSC1 100352Z 26004KT M02/M04 A3039 RMK A01 T10171040  RH  085%=      5-min Rain = 0
KSC1 100353Z 26004KT M02/M04 A3039 RMK A01 T10181040  RH  085%=      5-min Rain = 0
KSC1 100354Z 26004KT M02/M04 A3039 RMK A01 T10181040  RH  085%=      5-min Rain = 0
KSC1 100355Z 26004KT M02/M04 A3039 RMK A01 T10181039  RH  085%=      5-min Rain = 0
KSC1 100356Z 27003KT M02/M04 A3039 RMK A01 T10171039  RH  085%=      5-min Rain = 0
KSC1 100357Z 28003KT M02/M04 A304 RMK A01 T10171038  RH  085%=      5-min Rain = 0
KSC1 100358Z 29003KT M02/M04 A304 RMK A01 T10171038  RH  085%=      5-min Rain = 0
KSC1 100359Z 29003KT M02/M04 A304 RMK A01 T10171038  RH  086%=      5-min Rain = 0
KSC1 100400Z 27003KT M02/M04 A304 RMK A01 T10171037  RH  086%=      5-min Rain = 0
KSC1 100401Z 26003KT M02/M04 A304 RMK A01 T10171038  RH  086%=      5-min Rain = 0
KSC1 100402Z 26004KT M02/M04 A304 RMK A01 T10191040  RH  086%=      5-min Rain = 0
KSC1 100403Z 26004KT M02/M04 A304 RMK A01 T10201040  RH  086%=      5-min Rain = 0
KSC1 100404Z 26003KT M02/M04 A304 RMK A01 T10201040  RH  086%=      5-min Rain = 0
KSC1 100405Z 26003KT M02/M04 A304 RMK A01 T10201041  RH  086%=      5-min Rain = 0
KSC1 100406Z 26003KT M02/M04 A304 RMK A01 T10211041  RH  086%=      5-min Rain = 0
KSC1 100407Z 26003KT M02/M04 A304 RMK A01 T10211040  RH  087%=      5-min Rain = 0
KSC1 100408Z 25004KT M02/M04 A304 RMK A01 T10211039  RH  087%=      5-min Rain = 0
KSC1 100409Z 26004KT M02/M04 A304 RMK A01 T10211039  RH  088%=      5-min Rain = 0
KSC1 100410Z 26004KT M02/M04 A304 RMK A01 T10211039  RH  087%=      5-min Rain = 0
KSC1 100411Z 26004KT M02/M04 A304 RMK A01 T10201039  RH  087%=      5-min Rain = 0
KSC1 100412Z 26004KT M02/M04 A304 RMK A01 T10201039  RH  087%=      5-min Rain = 0
KSC1 100413Z 26004KT M02/M04 A304 RMK A01 T10201040  RH  087%=      5-min Rain = 0
KSC1 100414Z 26004KT M02/M04 A304 RMK A01 T10201040  RH  086%=      5-min Rain = 0
KSC1 100415Z 25003KT M02/M04 A304 RMK A01 T10201040  RH  086%=      5-min Rain = 0
KSC1 100416Z 25003KT M02/M04 A304 RMK A01 T10201040  RH  086%=      5-min Rain = 0
KSC1 100417Z 25003KT M02/M04 A304 RMK A01 T10211040  RH  086%=      5-min Rain = 0
KSC1 100418Z 24003KT M02/M04 A304 RMK A01 T10211041  RH  086%=      5-min Rain = 0
KSC1 100419Z 24003KT M02/M04 A304 RMK A01 T10211041  RH  086%=      5-min Rain = 0
KSC1 100420Z 24003KT M02/M04 A304 RMK A01 T10221042  RH  086%=      5-min Rain = 0
KSC1 100421Z 23003KT M02/M04 A304 RMK A01 T10241043  RH  087%=      5-min Rain = 0
KSC1 100422Z 23004KT M03/M04 A304 RMK A01 T10251043  RH  087%=      5-min Rain = 0
KSC1 100423Z 22003KT M03/M04 A304 RMK A01 T10261043  RH  088%=      5-min Rain = 0
KSC1 100424Z 22003KT M03/M04 A304 RMK A01 T10271043  RH  089%=      5-min Rain = 0
KSC1 100425Z 23003KT M03/M04 A304 RMK A01 T10281042  RH  090%=      5-min Rain = 0
KSC1 100426Z 23002KT M03/M04 A304 RMK A01 T10291043  RH  090%=      5-min Rain = 0
KSC1 100427Z 23002KT M03/M04 A304 RMK A01 T10291043  RH  090%=      5-min Rain = 0
KSC1 100428Z 23002KT M03/M04 A304 RMK A01 T10291043  RH  091%=      5-min Rain = 0
KSC1 100429Z 23001KT M03/M04 A304 RMK A01 T10301043  RH  091%=      5-min Rain = 0
KSC1 100430Z 23000KT M03/M04 A3041 RMK A01 T10301042  RH  091%=      5-min Rain = 0
KSC1 100431Z 23000KT M03/M04 A3041 RMK A01 T10301041  RH  092%=      5-min Rain = 0
KSC1 100432Z 00000KT M03/M04 A3041 RMK A01 T10301040  RH  093%=      5-min Rain = 0
KSC1 100433Z 34001KT M03/M04 A3041 RMK A01 T10291039  RH  093%=      5-min Rain = 0
KSC1 100434Z 35003KT M03/M04 A3041 RMK A01 T10291039  RH  093%=      5-min Rain = 0
KSC1 100435Z 35003KT M03/M04 A3041 RMK A01 T10291039  RH  093%=      5-min Rain = 0
KSC1 100436Z 35003KT M03/M04 A3041 RMK A01 T10291038  RH  093%=      5-min Rain = 0
KSC1 100437Z 35003KT M03/M04 A3041 RMK A01 T10291038  RH  093%=      5-min Rain = 0
KSC1 100438Z 35003KT M03/M04 A3041 RMK A01 T10281037  RH  093%=      5-min Rain = 0
KSC1 100439Z 34003KT M03/M04 A3041 RMK A01 T10281037  RH  094%=      5-min Rain = 0
KSC1 100440Z 34003KT M03/M04 A3041 RMK A01 T10281037  RH  094%=      5-min Rain = 0
KSC1 100441Z 34003KT M03/M04 A3041 RMK A01 T10281037  RH  094%=      5-min Rain = 0
KSC1 100442Z 33003KT M03/M04 A3041 RMK A01 T10281036  RH  094%=      5-min Rain = 0
KSC1 100443Z 33003KT M03/M04 A3041 RMK A01 T10271036  RH  094%=      5-min Rain = 0
KSC1 100444Z 33002KT M03/M04 A3041 RMK A01 T10271036  RH  094%=      5-min Rain = 0
KSC1 100445Z 33003KT M03/M04 A3041 RMK A01 T10271036  RH  094%=      5-min Rain = 0
KSC1 100446Z 33003KT M03/M04 A3041 RMK A01 T10271036  RH  094%=      5-min Rain = 0
KSC1 100447Z 32003KT M03/M04 A3041 RMK A01 T10271036  RH  094%=      5-min Rain = 0
KSC1 100448Z 32003KT M03/M04 A3041 RMK A01 T10281036  RH  094%=      5-min Rain = 0
KSC1 100449Z 31003KT M03/M04 A3041 RMK A01 T10281037  RH  094%=      5-min Rain = 0
KSC1 100450Z 31003KT M03/M04 A3041 RMK A01 T10291039  RH  093%=      5-min Rain = 0
KSC1 100451Z 31003KT M03/M04 A3041 RMK A01 T10301040  RH  093%=      5-min Rain = 0
KSC1 100452Z 31003KT M03/M04 A3041 RMK A01 T10311041  RH  093%=      5-min Rain = 0
KSC1 100453Z 30003KT M03/M04 A3041 RMK A01 T10321041  RH  093%=      5-min Rain = 0
KSC1 100454Z 30003KT M03/M04 A3041 RMK A01 T10321042  RH  093%=      5-min Rain = 0
KSC1 100455Z 29002KT M03/M04 A3041 RMK A01 T10331042  RH  093%=      5-min Rain = 0
KSC1 100456Z 29002KT M03/M04 A3041 RMK A01 T10341043  RH  093%=      5-min Rain = 0
KSC1 100457Z 28002KT M03/M04 A3041 RMK A01 T10341043  RH  094%=      5-min Rain = 0
KSC1 100458Z 28002KT M03/M04 A3041 RMK A01 T10341043  RH  094%=      5-min Rain = 0
KSC1 100459Z 26002KT M03/M04 A3041 RMK A01 T10331042  RH  094%=      5-min Rain = 0
KSC1 100500Z 26002KT M03/M04 A3041 RMK A01 T10341042  RH  094%=      5-min Rain = 0
KSC1 100501Z 26002KT M03/M04 A3041 RMK A01 T10341042  RH  094%=      5-min Rain = 0
KSC1 100502Z 26002KT M03/M04 A3041 RMK A01 T10341042  RH  094%=      5-min Rain = 0
KSC1 100503Z 26002KT M03/M04 A3041 RMK A01 T10341042  RH  094%=      5-min Rain = 0
KSC1 100504Z 26001KT M03/M04 A3041 RMK A01 T10341042  RH  095%=      5-min Rain = 0
KSC1 100505Z 26001KT M03/M04 A3041 RMK A01 T10341042  RH  095%=      5-min Rain = 0
KSC1 100506Z 26001KT M03/M04 A3041 RMK A01 T10341042  RH  095%=      5-min Rain = 0
KSC1 100507Z 22001KT M03/M04 A3041 RMK A01 T10341042  RH  095%=      5-min Rain = 0
KSC1 100508Z 21001KT M04/M04 A3041 RMK A01 T10351043  RH  095%=      5-min Rain = 0
KSC1 100509Z 20001KT M04/M04 A3041 RMK A01 T10361044  RH  094%=      5-min Rain = 0
KSC1 100510Z 20001KT M04/M04 A3041 RMK A01 T10361044  RH  095%=      5-min Rain = 0
KSC1 100511Z 20001KT M04/M04 A3041 RMK A01 T10361043  RH  095%=      5-min Rain = 0
KSC1 100512Z 20001KT M04/M04 A3041 RMK A01 T10361043  RH  095%=      5-min Rain = 0
KSC1 100513Z 20001KT M04/M04 A3041 RMK A01 T10361043  RH  095%=      5-min Rain = 0
KSC1 100514Z 19001KT M04/M04 A3041 RMK A01 T10361043  RH  095%=      5-min Rain = 0
KSC1 100515Z 19001KT M04/M04 A3041 RMK A01 T10361043  RH  095%=      5-min Rain = 0
KSC1 100516Z 19001KT M04/M04 A3041 RMK A01 T10361043  RH  095%=      5-min Rain = 0
KSC1 100517Z 19001KT M04/M04 A3041 RMK A01 T10361043  RH  095%=      5-min Rain = 0
KSC1 100518Z 19001KT M04/M04 A3041 RMK A01 T10361043  RH  095%=      5-min Rain = 0
KSC1 100519Z 19001KT M04/M04 A3041 RMK A01 T10371043  RH  095%=      5-min Rain = 0
KSC1 100520Z 19001KT M04/M04 A3041 RMK A01 T10371043  RH  095%=      5-min Rain = 0
KSC1 100521Z 19001KT M04/M04 A3041 RMK A01 T10371043  RH  096%=      5-min Rain = 0
KSC1 100522Z 19002KT M04/M04 A304 RMK A01 T10371043  RH  096%=      5-min Rain = 0
KSC1 100523Z 19002KT M04/M04 A304 RMK A01 T10371043  RH  096%=      5-min Rain = 0
KSC1 100524Z 18002KT M04/M04 A304 RMK A01 T10371042  RH  096%=      5-min Rain = 0
KSC1 100525Z 18002KT M04/M04 A304 RMK A01 T10371042  RH  096%=      5-min Rain = 0
KSC1 100526Z 18003KT M04/M04 A304 RMK A01 T10371042  RH  096%=      5-min Rain = 0
KSC1 100527Z 17002KT M04/M04 A304 RMK A01 T10371042  RH  096%=      5-min Rain = 0
KSC1 100528Z 17002KT M04/M04 A304 RMK A01 T10371043  RH  096%=      5-min Rain = 0
KSC1 100529Z 17002KT M04/M04 A304 RMK A01 T10371043  RH  096%=      5-min Rain = 0
KSC1 100530Z 17001KT M04/M04 A304 RMK A01 T10381043  RH  096%=      5-min Rain = 0
KSC1 100531Z 18000KT M04/M04 A304 RMK A01 T10381043  RH  096%=      5-min Rain = 0
KSC1 100532Z 19000KT M04/M04 A304 RMK A01 T10371042  RH  096%=      5-min Rain = 0
KSC1 100533Z 00000KT M04/M04 A3041 RMK A01 T10371042  RH  096%=      5-min Rain = 0
KSC1 100534Z 00000KT M04/M04 A3041 RMK A01 T10371042  RH  096%=      5-min Rain = 0
KSC1 100535Z 00000KT M04/M04 A3041 RMK A01 T10371042  RH  096%=      5-min Rain = 0
KSC1 100536Z 00000KT M04/M04 A3041 RMK A01 T10371042  RH  096%=      5-min Rain = 0
KSC1 100537Z 00000KT M04/M04 A304 RMK A01 T10361041  RH  097%=      5-min Rain = 0
KSC1 100538Z 25000KT M04/M04 A304 RMK A01 T10371042  RH  096%=      5-min Rain = 0
KSC1 100539Z 25001KT M04/M04 A304 RMK A01 T10371042  RH  096%=      5-min Rain = 0
KSC1 100540Z 25001KT M04/M04 A304 RMK A01 T10371042  RH  097%=      5-min Rain = 0
KSC1 100541Z 00000KT M04/M04 A304 RMK A01 T10371041  RH  097%=      5-min Rain = 0
KSC1 100542Z 00000KT M04/M04 A304 RMK A01 T10371041  RH  097%=      5-min Rain = 0
KSC1 100543Z 00000KT M04/M04 A304 RMK A01 T10371042  RH  097%=      5-min Rain = 0
KSC1 100544Z 00000KT M04/M04 A304 RMK A01 T10371042  RH  097%=      5-min Rain = 0
KSC1 100545Z 00000KT M04/M04 A304 RMK A01 T10371042  RH  097%=      5-min Rain = 0
KSC1 100546Z 25000KT M04/M04 A304 RMK A01 T10381043  RH  096%=      5-min Rain = 0
KSC1 100547Z 27001KT M04/M04 A304 RMK A01 T10381043  RH  096%=      5-min Rain = 0
KSC1 100548Z 27002KT M04/M04 A304 RMK A01 T10381043  RH  097%=      5-min Rain = 0
KSC1 100549Z 27002KT M04/M04 A304 RMK A01 T10381042  RH  097%=      5-min Rain = 0
KSC1 100550Z 28002KT M04/M04 A304 RMK A01 T10371042  RH  097%=      5-min Rain = 0
KSC1 100551Z 28002KT M04/M04 A304 RMK A01 T10371041  RH  097%=      5-min Rain = 0
KSC1 100552Z 28002KT M04/M04 A304 RMK A01 T10371042  RH  097%=      5-min Rain = 0
KSC1 100553Z 28002KT M04/M04 A304 RMK A01 T10371042  RH  097%=      5-min Rain = 0
KSC1 100554Z 28002KT M04/M04 A304 RMK A01 T10371042  RH  097%=      5-min Rain = 0
KSC1 100555Z 28002KT M04/M04 A304 RMK A01 T10371042  RH  097%=      5-min Rain = 0
KSC1 100556Z 28002KT M04/M04 A304 RMK A01 T10381043  RH  097%=      5-min Rain = 0
KSC1 100557Z 28001KT M04/M04 A304 RMK A01 T10381043  RH  097%=      5-min Rain = 0
KSC1 100558Z 28001KT M04/M04 A304 RMK A01 T10391044  RH  096%=      5-min Rain = 0
KSC1 100559Z 28001KT M04/M05 A304 RMK A01 T10391045  RH  096%=      5-min Rain = 0

Page generated in 0.1903 seconds.